N4ASP-13 Weather Reports


time (UTC)temp
F
wind
direction
speed
knots
gust
knots
rain 1hr
in
rain 24hr
in
rain mn
in
humidity
%
barometer
mb
20260502130656 48 342 5.2 8.7 0.00 0.00 0.00 71 1013.3
20260502130555 48 313 4.3 8.7 0.00 0.00 0.00 70 1013.3
20260502130456 48 323 4.3 8.7 0.00 0.00 0.00 70 1013.4
20260502130349 48 323 4.3 8.7 0.00 0.00 0.00 71 1013.4
20260502130249 48 300 4.3 8.7 0.00 0.00 0.00 71 1013.4
20260502130149 48 313 4.3 8.7 0.00 0.00 0.00 70 1013.4
20260502123811 48 326 3.5 6.1 0.00 0.00 0.00 74 1013.1
20260502123709 48 312 3.5 6.1 0.00 0.00 0.00 74 1012.9
20260502123609 48 309 3.5 6.1 0.00 0.00 0.00 74 1012.9
20260502123511 48 309 3.5 6.1 0.00 0.00 0.00 74 1012.9
20260502123409 48 343 3.5 6.1 0.00 0.00 0.00 73 1013.1
20260502123304 48 355 3.5 6.1 0.00 0.00 0.00 72 1013.1
20260502123203 48 350 3.5 6.1 0.00 0.00 0.00 72 1013.2
20260502123104 48 306 3.5 6.1 0.00 0.00 0.00 73 1013.1
20260502123004 48 292 3.5 6.1 0.00 0.00 0.00 75 1013.1
20260502122904 48 309 3.5 6.1 0.00 0.00 0.00 75 1013.1
20260502122754 48 286 3.5 6.1 0.00 0.00 0.00 76 1013.1
20260502122653 48 333 2.6 6.1 0.00 0.00 0.00 75 1013.2
20260502122554 48 325 2.6 6.1 0.00 0.00 0.00 75 1013.1
20260502122454 48 338 2.6 6.1 0.00 0.00 0.00 74 1013.2
20260502122353 48 313 2.6 6.1 0.00 0.00 0.00 75 1013.2
20260502122246 48 322 2.6 6.1 0.00 0.00 0.00 75 1013.2
20260502122145 48 340 2.6 6.1 0.00 0.00 0.00 75 1013.2
20260502122046 48 321 2.6 6.1 0.00 0.00 0.00 76 1013.2
20260502121945 48 308 2.6 6.1 0.00 0.00 0.00 75 1013.2
20260502121846 48 303 2.6 4.3 0.00 0.00 0.00 75 1013.2
20260502121743 48 325 2.6 4.3 0.00 0.00 0.00 75 1013.2
20260502121641 48 309 2.6 4.3 0.00 0.00 0.00 74 1013.3
20260502121539 48 305 2.6 8.7 0.00 0.00 0.00 75 1013.2
20260502121440 48 306 2.6 8.7 0.00 0.00 0.00 75 1013.1
20260502121340 48 11 2.6 8.7 0.00 0.00 0.00 75 1013.0
20260502121233 48 343 2.6 8.7 0.00 0.00 0.00 74 1012.9
20260502121134 48 343 2.6 8.7 0.00 0.00 0.00 74 1012.9
20260502121033 48 330 2.6 8.7 0.00 0.00 0.00 74 1012.9
20260502120932 48 329 2.6 8.7 0.00 0.00 0.00 74 1012.8
20260502120830 48 329 3.5 8.7 0.00 0.00 0.00 74 1012.8
20260502120727 48 334 3.5 8.7 0.00 0.00 0.00 73 1012.8
20260502120629 48 318 3.5 8.7 0.00 0.00 0.00 73 1012.7
20260502120525 48 323 3.5 8.7 0.00 0.00 0.00 73 1012.6
20260502120426 48 315 3.5 8.7 0.00 0.00 0.00 73 1012.8
20260502120324 48 329 3.5 8.7 0.00 0.00 0.00 73 1012.8
20260502120217 48 11 3.5 8.7 0.00 0.00 0.00 73 1012.8
20260502120118 48 335 3.5 8.7 0.00 0.00 0.00 73 1012.6
20260502115917 48 355 3.5 8.7 0.00 0.00 0.00 73 1012.9
20260502115818 48 355 3.5 8.7 0.00 0.00 0.00 73 1012.9
20260502115707 48 313 3.5 8.7 0.00 0.00 0.00 74 1012.8
20260502115607 48 317 3.5 7.8 0.00 0.00 0.00 74 1012.8
20260502115508 48 341 3.5 7.8 0.00 0.00 0.00 73 1012.9
20260502115406 48 350 3.5 8.7 0.00 0.00 0.00 73 1012.8
20260502115308 48 346 3.5 8.7 0.00 0.00 0.00 74 1012.8
20260502115201 48 343 3.5 8.7 0.00 0.00 0.00 75 1012.8
20260502115101 48 310 3.5 8.7 0.00 0.00 0.00 75 1012.8
20260502115001 48 0 4.3 8.7 0.00 0.00 0.00 75 1012.9
20260502114901 48 0 4.3 8.7 0.00 0.00 0.00 74 1012.8
20260502114801 48 0 4.3 8.7 0.00 0.00 0.00 75 1013.0
20260502114655 48 5 4.3 8.7 0.00 0.00 0.00 76 1013.0
20260502114555 48 327 4.3 8.7 0.00 0.00 0.00 76 1013.2
20260502114455 48 313 4.3 7.8 0.00 0.00 0.00 77 1013.0
20260502114355 48 344 4.3 7.8 0.00 0.00 0.00 77 1013.0
20260502114256 48 284 4.3 7.8 0.00 0.00 0.00 77 1012.9
20260502114147 48 329 3.5 7.8 0.00 0.00 0.00 77 1012.9
20260502114045 48 326 3.5 7.8 0.00 0.00 0.00 77 1012.9
20260502113946 48 307 3.5 7.8 0.00 0.00 0.00 77 1012.9
20260502113846 48 309 3.5 7.8 0.00 0.00 0.00 77 1012.9
20260502113746 48 348 3.5 7.8 0.00 0.00 0.00 77 1012.8
20260502113640 48 351 3.5 7.0 0.00 0.00 0.00 77 1012.9
20260502113539 48 355 3.5 7.0 0.00 0.00 0.00 77 1012.9
20260502113440 48 339 3.5 7.8 0.00 0.00 0.00 77 1012.9
20260502113339 48 320 3.5 7.8 0.00 0.00 0.00 77 1012.9
20260502113240 48 318 3.5 7.8 0.00 0.00 0.00 77 1012.9
20260502113134 48 304 4.3 7.8 0.00 0.00 0.00 77 1012.9
20260502113034 48 335 4.3 7.8 0.00 0.00 0.00 77 1012.9
20260502112934 48 330 4.3 7.8 0.00 0.00 0.00 78 1013.0
20260502112833 48 322 4.3 7.8 0.00 0.00 0.00 77 1012.8
20260502112733 48 310 3.5 7.8 0.00 0.00 0.00 78 1012.9
20260502112623 48 301 3.5 7.8 0.00 0.00 0.00 77 1012.9
20260502112524 48 317 3.5 7.8 0.00 0.00 0.00 77 1012.9
20260502112424 48 325 3.5 7.8 0.00 0.00 0.00 77 1012.8
20260502112323 48 311 3.5 6.1 0.00 0.00 0.00 78 1012.8
20260502112234 48 319 3.5 6.1 0.00 0.00 0.00 78 1012.7
20260502112118 48 306 3.5 6.1 0.00 0.00 0.00 78 1012.7
20260502112018 48 355 3.5 6.1 0.00 0.00 0.00 78 1012.8
20260502111917 48 319 3.5 6.1 0.00 0.00 0.00 78 1012.8
20260502111818 48 313 3.5 6.1 0.00 0.00 0.00 78 1012.8
20260502111717 48 313 3.5 6.1 0.00 0.00 0.00 78 1012.8
20260502111612 48 338 3.5 6.1 0.00 0.00 0.00 78 1012.8
20260502111511 48 297 3.5 6.1 0.00 0.00 0.00 78 1012.9
20260502111412 48 313 3.5 6.1 0.00 0.00 0.00 78 1012.9
20260502111310 48 315 3.5 6.1 0.00 0.00 0.00 78 1012.8
20260502111212 48 302 2.6 7.0 0.00 0.00 0.00 77 1012.6
20260502111102 48 348 3.5 7.0 0.00 0.00 0.00 77 1012.7
20260502111002 48 325 3.5 7.8 0.00 0.00 0.00 77 1012.6
20260502110902 48 309 3.5 7.8 0.00 0.00 0.00 77 1012.7
20260502110800 48 331 3.5 7.8 0.00 0.00 0.00 77 1012.7
20260502110701 48 327 4.3 7.8 0.00 0.00 0.00 77 1012.7
20260502110558 48 355 4.3 7.8 0.00 0.00 0.00 77 1012.7
20260502110456 48 355 4.3 8.7 0.00 0.00 0.00 77 1012.7
20260502110354 48 355 4.3 8.7 0.00 0.00 0.00 77 1012.8
20260502110258 48 5 4.3 8.7 0.00 0.00 0.00 77 1012.8
20260502110156 48 355 5.2 8.7 0.00 0.00 0.00 77 1012.8
20260502110052 48 339 5.2 8.7 0.00 0.00 0.00 77 1012.8
20260502105950 48 311 5.2 8.7 0.00 0.00 0.00 76 1012.8
20260502105850 48 344 4.3 8.7 0.00 0.00 0.00 76 1012.8
20260502105749 48 339 4.3 8.7 0.00 0.00 0.00 77 1012.7
20260502105649 48 307 4.3 8.7 0.00 0.00 0.00 77 1012.8
20260502105540 48 318 4.3 7.8 0.00 0.00 0.00 77 1012.6
20260502105440 48 355 4.3 7.8 0.00 0.00 0.00 77 1012.6
20260502105340 48 355 4.3 7.8 0.00 0.00 0.00 77 1012.5
20260502105238 48 321 4.3 7.8 0.00 0.00 0.00 77 1012.5
20260502105139 48 326 4.3 7.8 0.00 0.00 0.00 77 1012.4
20260502105035 48 355 4.3 7.8 0.00 0.00 0.00 77 1012.4
20260502104934 48 341 4.3 7.8 0.00 0.00 0.00 78 1012.4
20260502104834 48 345 4.3 7.8 0.00 0.00 0.00 78 1012.4
20260502104734 48 313 4.3 7.8 0.00 0.00 0.00 78 1012.5
20260502104633 48 338 4.3 7.8 0.00 0.00 0.00 78 1012.6
20260502104528 48 297 4.3 7.8 0.00 0.00 0.00 77 1012.6
20260502104430 48 325 4.3 7.8 0.00 0.00 0.00 78 1012.6
20260502104329 48 331 4.3 7.8 0.00 0.00 0.00 78 1012.6
20260502104229 48 349 3.5 7.8 0.00 0.00 0.00 78 1012.6
20260502104128 48 325 3.5 7.8 0.00 0.00 0.00 79 1012.6
20260502104021 48 329 3.5 7.8 0.00 0.00 0.00 78 1012.5
20260502103922 48 355 3.5 7.8 0.00 0.00 0.00 79 1012.5
20260502103819 48 319 3.5 7.8 0.00 0.00 0.00 78 1012.4
20260502103718 48 322 3.5 6.1 0.00 0.00 0.00 78 1012.4
20260502103618 48 311 2.6 6.1 0.00 0.00 0.00 78 1012.5
20260502103513 48 311 2.6 6.1 0.00 0.00 0.00 78 1012.4
20260502103413 48 15 2.6 6.1 0.00 0.00 0.00 78 1012.4
20260502103313 48 34 2.6 4.3 0.00 0.00 0.00 78 1012.4
20260502103214 48 355 2.6 4.3 0.00 0.00 0.00 78 1012.4
20260502103111 48 0 2.6 4.3 0.00 0.00 0.00 78 1012.3
20260502103008 48 351 2.6 4.3 0.00 0.00 0.00 79 1012.3
20260502102905 48 355 2.6 4.3 0.00 0.00 0.00 79 1012.3
20260502102806 48 323 2.6 6.1 0.00 0.00 0.00 79 1012.4
20260502102706 48 313 2.6 6.1 0.00 0.00 0.00 79 1012.4
20260502102605 48 308 2.6 6.1 0.00 0.00 0.00 78 1012.4
20260502102455 48 331 3.5 6.1 0.00 0.00 0.00 79 1012.4
20260502102355 48 327 3.5 6.1 0.00 0.00 0.00 78 1012.4
20260502102256 48 332 3.5 6.1 0.00 0.00 0.00 78 1012.4
20260502102155 48 332 3.5 6.1 0.00 0.00 0.00 78 1012.4
20260502102055 48 333 3.5 6.1 0.00 0.00 0.00 78 1012.4
20260502101952 48 326 2.6 6.1 0.00 0.00 0.00 78 1012.4
20260502101848 48 306 2.6 6.1 0.00 0.00 0.00 78 1012.3
20260502101749 49 325 2.6 5.2 0.00 0.00 0.00 78 1012.3
20260502101649 49 310 2.6 5.2 0.00 0.00 0.00 78 1012.2
20260502101549 49 333 2.6 5.2 0.00 0.00 0.00 78 1012.2
20260502101444 49 331 2.6 5.2 0.00 0.00 0.00 78 1012.3
20260502101342 49 355 2.6 5.2 0.00 0.00 0.00 78 1012.2
20260502101244 49 355 2.6 5.2 0.00 0.00 0.00 78 1012.3
20260502101144 49 341 2.6 5.2 0.00 0.00 0.00 78 1012.3
20260502101044 49 338 2.6 5.2 0.00 0.00 0.00 78 1012.3
20260502100935 49 333 2.6 5.2 0.00 0.00 0.00 78 1012.3
20260502100835 49 355 2.6 5.2 0.00 0.00 0.00 78 1012.2
20260502100735 49 325 3.5 7.8 0.00 0.00 0.00 78 1012.2
20260502100636 49 310 3.5 7.8 0.00 0.00 0.00 78 1012.3
20260502100534 49 327 3.5 7.8 0.00 0.00 0.00 78 1012.4
20260502100433 49 328 3.5 7.8 0.00 0.00 0.00 78 1012.4
20260502100330 49 313 4.3 7.8 0.00 0.00 0.00 77 1012.5
20260502100230 49 300 4.3 7.8 0.00 0.00 0.00 78 1012.5
20260502100130 49 328 4.3 7.8 0.00 0.00 0.00 77 1012.5
20260502091522 49 318 4.3 7.0 0.00 0.00 0.00 78 1012.9
20260502091422 49 328 4.3 7.0 0.00 0.00 0.00 78 1012.9
20260502091322 49 325 3.5 7.0 0.00 0.00 0.00 79 1012.9
20260502091218 49 293 3.5 7.0 0.00 0.00 0.00 79 1012.9
20260502091117 49 299 3.5 7.0 0.00 0.00 0.00 79 1012.9
20260502091018 49 299 3.5 6.1 0.00 0.00 0.00 79 1013.0
20260502090915 49 318 3.5 6.1 0.00 0.00 0.00 79 1013.0
20260502090804 49 317 3.5 6.1 0.00 0.00 0.00 79 1013.0
20260502090706 50 328 3.5 6.1 0.00 0.00 0.00 79 1012.9
20260502090606 50 338 3.5 6.1 0.00 0.00 0.00 79 1012.9
20260502090505 50 312 3.5 7.0 0.00 0.00 0.00 79 1012.9
20260502090405 50 321 3.5 7.8 0.00 0.00 0.00 79 1012.8
20260502090302 50 309 3.5 7.8 0.00 0.00 0.00 79 1012.8
20260502090200 50 331 3.5 7.8 0.00 0.00 0.00 79 1012.6
20260502071525 51 337 2.6 7.0 0.00 0.00 0.00 80 1012.2
20260502071424 51 332 2.6 7.0 0.00 0.00 0.00 80 1012.1
20260502071325 51 311 2.6 7.0 0.00 0.00 0.00 80 1012.1
20260502071226 51 327 2.6 7.0 0.00 0.00 0.00 80 1012.1
20260502071125 51 341 2.6 7.0 0.00 0.00 0.00 80 1012.0
20260502071021 51 323 1.7 4.3 0.00 0.00 0.00 80 1012.0
20260502070919 51 348 1.7 4.3 0.00 0.00 0.00 80 1012.0
20260502070818 51 333 1.7 4.3 0.00 0.00 0.00 80 1011.8
20260502070720 51 329 1.7 4.3 0.00 0.00 0.00 80 1012.0
20260502070619 51 326 1.7 4.3 0.00 0.00 0.00 80 1011.8
20260502070509 51 327 1.7 4.3 0.00 0.00 0.00 80 1011.8
20260502070408 51 323 1.7 4.3 0.00 0.00 0.00 80 1011.8
20260502070310 51 344 1.7 4.3 0.00 0.00 0.00 80 1011.7
20260502070210 51 346 1.7 4.3 0.00 0.00 0.00 80 1011.8
20260502070110 51 346 1.7 4.3 0.00 0.00 0.00 80 1012.0
20260502070002 51 11 1.7 3.5 0.00 0.00 0.00 80 1012.0
20260502065903 51 13 1.7 3.5 0.00 0.00 0.00 81 1012.0
20260502065803 51 12 1.7 2.6 0.00 0.00 0.00 81 1011.8
20260502065704 51 12 1.7 2.6 0.00 0.00 0.00 80 1011.8
20260502065604 51 14 1.7 2.6 0.00 0.00 0.00 80 1011.8
20260502065503 51 14 1.7 2.6 0.00 0.00 0.00 80 1011.8
20260502065402 51 14 1.7 2.6 0.00 0.00 0.00 80 1011.8
20260502065306 51 5 1.7 2.6 0.00 0.00 0.00 80 1011.8
20260502065203 51 5 1.7 2.6 0.00 0.00 0.00 81 1012.0
20260502065103 51 15 0.9 2.6 0.00 0.00 0.00 80 1012.0
20260502065004 51 15 0.9 2.6 0.00 0.00 0.00 80 1012.0
20260502064903 51 15 0.9 2.6 0.00 0.00 0.00 81 1012.0
20260502064802 51 15 0.9 2.6 0.00 0.00 0.00 81 1012.0
20260502064702 51 14 0.9 2.6 0.00 0.00 0.00 81 1012.0
20260502064602 51 14 0.9 2.6 0.00 0.00 0.00 81 1012.1
20260502064503 51 14 0.9 2.6 0.00 0.00 0.00 81 1012.1
20260502064404 51 14 0.9 2.6 0.00 0.00 0.00 81 1012.1
20260502064300 51 14 0.9 3.5 0.00 0.00 0.00 81 1012.2
20260502064156 51 14 1.7 3.5 0.00 0.00 0.00 81 1012.2
20260502064056 51 14 1.7 3.5 0.00 0.00 0.00 81 1012.2
20260502063957 51 14 1.7 3.5 0.00 0.00 0.00 81 1012.2
20260502063857 51 14 1.7 3.5 0.00 0.00 0.00 81 1012.2
20260502063754 51 5 1.7 3.5 0.00 0.00 0.00 81 1012.1
20260502063650 51 38 1.7 3.5 0.00 0.00 0.00 81 1012.2
20260502063551 51 38 0.9 3.5 0.00 0.00 0.00 81 1012.2
20260502063450 51 38 0.9 3.5 0.00 0.00 0.00 81 1012.2
20260502063348 51 38 0.9 3.5 0.00 0.00 0.00 81 1012.3
20260502063249 51 11 0.9 2.6 0.00 0.00 0.00 81 1012.2
20260502063149 51 5 0.9 2.6 0.00 0.00 0.00 81 1012.2
20260502063048 51 5 0.9 2.6 0.00 0.00 0.00 81 1012.3
20260502062946 51 5 0.9 4.3 0.00 0.00 0.00 81 1012.4
20260502062848 51 5 0.9 4.3 0.00 0.00 0.00 81 1012.4
20260502062746 51 5 0.9 4.3 0.00 0.00 0.00 81 1012.4
20260502062646 51 9 1.7 4.3 0.00 0.00 0.00 80 1012.4
20260502062548 52 10 1.7 4.3 0.00 0.00 0.00 80 1012.4
20260502062446 52 10 1.7 4.3 0.00 0.00 0.00 80 1012.4
20260502062342 52 0 2.6 4.3 0.00 0.00 0.00 80 1012.5
20260502062243 52 0 2.6 7.0 0.00 0.00 0.00 80 1012.4
20260502062143 52 10 2.6 7.0 0.00 0.00 0.00 80 1012.4
20260502062043 52 5 3.5 7.0 0.00 0.00 0.00 80 1012.5
20260502061942 52 0 3.5 10.4 0.00 0.00 0.00 80 1012.5
20260502061841 52 5 3.5 10.4 0.00 0.00 0.00 80 1012.5
20260502061741 52 18 4.3 10.4 0.00 0.00 0.00 80 1012.6
20260502061641 52 5 4.3 10.4 0.00 0.00 0.00 80 1012.5
20260502061540 52 5 4.3 10.4 0.00 0.00 0.00 80 1012.6
20260502061439 52 355 4.3 10.4 0.00 0.00 0.00 80 1012.5
20260502061339 52 329 5.2 10.4 0.00 0.00 0.00 80 1012.6
20260502061239 52 318 5.2 10.4 0.00 0.00 0.00 80 1012.6
20260502061139 52 334 5.2 10.4 0.00 0.00 0.00 80 1012.6
20260502061038 52 333 5.2 10.4 0.00 0.00 0.00 80 1012.6
20260502060940 52 317 5.2 8.7 0.00 0.00 0.00 80 1012.6
20260502060838 52 329 5.2 8.7 0.00 0.00 0.00 80 1012.6
20260502060739 52 338 5.2 8.7 0.00 0.00 0.00 80 1012.6
20260502060638 52 318 5.2 8.7 0.00 0.00 0.00 80 1012.5
20260502060538 52 325 5.2 8.7 0.00 0.00 0.00 80 1012.5
20260502060439 52 346 5.2 8.7 0.00 0.00 0.00 80 1012.5
20260502060334 52 317 5.2 8.7 0.00 0.00 0.00 80 1012.5
20260502060234 52 321 5.2 8.7 0.00 0.00 0.00 80 1012.5
20260502060134 52 288 5.2 8.7 0.00 0.00 0.00 80 1012.6
20260502060034 52 327 5.2 8.7 0.00 0.00 0.00 80 1012.6
20260502055935 52 299 4.3 8.7 0.00 0.00 0.00 81 1012.6
20260502055834 52 313 4.3 8.7 0.00 0.00 0.00 81 1012.6
20260502055735 52 300 4.3 8.7 0.00 0.00 0.00 81 1012.6
20260502055634 52 321 5.2 8.7 0.00 0.00 0.00 80 1012.5
20260502055536 52 325 5.2 8.7 0.00 0.00 0.00 80 1012.6
20260502055432 52 313 5.2 8.7 0.00 0.00 0.00 80 1012.6
20260502055333 52 315 5.2 8.7 0.00 0.00 0.00 80 1012.7
20260502055232 52 322 5.2 8.7 0.00 0.00 0.00 80 1012.8
20260502055132 52 305 5.2 8.7 0.00 0.00 0.00 80 1012.7
20260502055032 52 321 4.3 8.7 0.00 0.00 0.00 80 1012.7
20260502054934 52 306 4.3 8.7 0.00 0.00 0.00 80 1012.8
20260502054834 52 322 4.3 8.7 0.00 0.00 0.00 80 1012.8
20260502054731 52 286 4.3 8.7 0.00 0.00 0.00 80 1012.8
20260502054626 52 308 3.5 8.7 0.00 0.00 0.00 80 1012.8
20260502054528 52 314 3.5 8.7 0.00 0.00 0.00 81 1012.7
20260502054324 52 323 2.6 8.7 0.00 0.00 0.00 82 1012.8
20260502054225 52 313 2.6 8.7 0.00 0.00 0.00 82 1012.8
20260502054124 52 307 1.7 5.2 0.00 0.00 0.00 83 1012.8
20260502054025 52 313 1.7 5.2 0.00 0.00 0.00 83 1012.8
20260502053925 52 313 1.7 5.2 0.00 0.00 0.00 84 1012.8
20260502053825 52 275 1.7 5.2 0.00 0.00 0.00 84 1012.8
20260502053724 52 266 0.9 5.2 0.00 0.00 0.00 84 1012.8
20260502053624 52 279 0.9 2.6 0.00 0.00 0.00 84 1012.6
20260502053525 52 274 0.9 2.6 0.00 0.00 0.00 84 1012.7
20260502053420 52 274 0.9 2.6 0.00 0.00 0.00 84 1012.6
20260502053321 52 274 0.9 2.6 0.00 0.00 0.00 84 1012.6
20260502053221 52 277 0.9 1.7 0.00 0.00 0.00 84 1012.6
20260502053121 52 277 0.9 1.7 0.00 0.00 0.00 84 1012.6
20260502053021 52 277 0.9 1.7 0.00 0.00 0.00 84 1012.6
20260502052921 52 277 0.9 1.7 0.00 0.00 0.00 84 1012.7
20260502052819 52 277 0.0 1.7 0.00 0.00 0.00 83 1012.7
20260502052719 52 277 0.0 7.8 0.00 0.00 0.00 83 1012.7
20260502052618 52 277 0.9 7.8 0.00 0.00 0.00 83 1012.8
20260502052519 52 277 0.9 7.8 0.00 0.00 0.00 83 1012.8
20260502052419 52 278 0.9 7.8 0.00 0.00 0.00 83 1012.8
20260502052318 52 278 0.9 7.8 0.00 0.00 0.00 83 1012.8
20260502052218 52 278 1.7 7.8 0.00 0.00 0.00 83 1012.8
20260502052120 52 278 1.7 7.8 0.00 0.00 0.00 83 1012.8
20260502052018 52 278 2.6 7.8 0.00 0.00 0.00 83 1012.7
20260502051920 52 284 2.6 7.8 0.00 0.00 0.00 83 1012.8
20260502051818 52 284 3.5 7.8 0.00 0.00 0.00 83 1012.7
20260502051720 53 288 3.5 7.8 0.00 0.00 0.00 83 1012.8
20260502051619 53 291 4.3 7.8 0.00 0.00 0.00 83 1012.7
20260502051519 53 324 4.3 7.8 0.00 0.00 0.00 83 1012.7
20260502051419 53 298 4.3 7.8 0.00 0.00 0.00 83 1012.7
20260502051319 53 319 4.3 7.8 0.00 0.00 0.00 83 1012.7
20260502051218 53 332 4.3 7.8 0.00 0.00 0.00 83 1012.7
20260502051118 53 330 4.3 7.8 0.00 0.00 0.00 83 1012.6
20260502051020 53 302 4.3 7.8 0.00 0.00 0.00 83 1012.5
20260502050920 53 309 4.3 7.8 0.00 0.00 0.00 82 1012.6
20260502050818 53 317 4.3 7.8 0.00 0.00 0.00 82 1012.6
20260502050719 53 276 4.3 7.8 0.00 0.00 0.00 82 1012.6
20260502050619 53 302 4.3 7.8 0.00 0.00 0.00 82 1012.6
20260502050519 53 319 4.3 7.8 0.00 0.00 0.00 82 1012.6
20260502050418 53 308 4.3 7.8 0.00 0.00 0.00 82 1012.6
20260502050319 53 320 3.5 7.8 0.00 0.00 0.00 82 1012.6
20260502050219 53 314 3.5 7.8 0.00 0.00 0.00 82 1012.6
20260502050116 53 285 2.6 7.8 0.00 0.00 0.00 82 1012.6
20260502050016 53 318 2.6 7.8 0.00 0.00 0.00 82 1012.6
20260502045915 53 331 1.7 7.8 0.00 0.00 0.00 82 1012.6
20260502045814 53 317 1.7 7.0 0.00 0.00 0.00 81 1012.5
20260502045715 53 333 0.9 7.0 0.00 0.00 0.00 81 1012.6
20260502045614 53 350 0.0 7.0 0.00 0.00 0.00 81 1012.5
20260502045515 53 323 0.0 2.6 0.00 0.00 0.00 81 1012.6
20260502045415 53 177 0.0 2.6 0.00 0.00 0.00 81 1012.5
20260502045316 53 177 0.0 2.6 0.00 0.00 0.00 81 1012.5
20260502045216 53 177 0.0 2.6 0.00 0.00 0.00 81 1012.4
20260502045116 53 177 0.9 2.6 0.00 0.00 0.00 81 1012.4
20260502045014 53 177 0.9 2.6 0.00 0.00 0.00 81 1012.4
20260502044916 53 177 0.9 2.6 0.00 0.00 0.00 81 1012.4
20260502044814 53 177 0.9 2.6 0.00 0.00 0.00 81 1012.3
20260502044716 53 177 0.9 2.6 0.00 0.00 0.00 81 1012.4
20260502044614 53 177 0.9 2.6 0.00 0.00 0.00 81 1012.5
20260502044515 53 177 0.9 2.6 0.00 0.00 0.00 81 1012.4
20260502044414 53 177 0.9 2.6 0.00 0.00 0.00 81 1012.4
20260502044314 53 176 0.9 2.6 0.00 0.00 0.00 82 1012.4
20260502044214 53 176 0.9 2.6 0.00 0.00 0.00 81 1012.4
20260502044114 53 176 0.9 2.6 0.00 0.00 0.00 81 1012.4
20260502044014 53 176 0.9 2.6 0.00 0.00 0.00 81 1012.4
20260502043914 53 176 0.9 2.6 0.00 0.00 0.00 81 1012.4
20260502043814 53 176 0.9 2.6 0.00 0.00 0.00 81 1012.4
20260502043714 53 176 0.9 2.6 0.00 0.00 0.00 81 1012.4
20260502043616 53 176 0.9 2.6 0.00 0.00 0.00 82 1012.4
20260502043515 53 176 0.9 2.6 0.00 0.00 0.00 82 1012.4
20260502043415 53 176 0.9 2.6 0.00 0.00 0.00 81 1012.4
20260502043316 53 176 0.9 2.6 0.00 0.00 0.00 81 1012.5
20260502043215 53 176 0.9 2.6 0.00 0.00 0.00 81 1012.5
20260502043014 53 173 0.9 2.6 0.00 0.00 0.00 81 1012.5
20260502042916 53 173 0.9 2.6 0.00 0.00 0.00 81 1012.6
20260502042812 53 173 0.9 2.6 0.00 0.00 0.00 81 1012.6
20260502042711 53 173 0.9 2.6 0.00 0.00 0.00 81 1012.5
20260502042612 53 174 0.9 2.6 0.00 0.00 0.00 81 1012.5
20260502042511 53 173 0.9 2.6 0.00 0.00 0.00 81 1012.5
20260502042411 53 173 0.9 2.6 0.00 0.00 0.00 82 1012.5
20260502042310 53 173 0.9 2.6 0.00 0.00 0.00 82 1012.5
20260502042212 53 173 0.9 2.6 0.00 0.00 0.00 82 1012.5
20260502042110 53 173 0.9 2.6 0.00 0.00 0.00 81 1012.4
20260502042011 53 173 0.9 2.6 0.00 0.00 0.00 82 1012.4
20260502041910 53 173 0.9 1.7 0.00 0.00 0.00 82 1012.5
20260502041810 53 173 0.9 1.7 0.00 0.00 0.00 82 1012.4
20260502041711 53 173 0.9 1.7 0.00 0.00 0.00 82 1012.4
20260502041612 53 173 0.9 1.7 0.00 0.00 0.00 82 1012.5
20260502041510 53 173 0.9 2.6 0.00 0.00 0.00 82 1012.4
20260502041412 53 173 0.9 2.6 0.00 0.00 0.00 82 1012.5
20260502041312 53 173 0.9 2.6 0.00 0.00 0.00 82 1012.6
20260502041210 53 173 0.9 2.6 0.00 0.00 0.00 82 1012.4
20260502041111 53 173 0.9 2.6 0.00 0.00 0.00 82 1012.4
20260502041010 53 173 0.9 2.6 0.00 0.00 0.00 82 1012.5
20260502040911 53 173 0.9 2.6 0.00 0.00 0.00 82 1012.5
20260502040810 53 173 0.9 2.6 0.00 0.00 0.00 82 1012.4
20260502040710 53 173 0.9 2.6 0.00 0.00 0.00 82 1012.4
20260502040612 53 173 1.7 2.6 0.00 0.00 0.00 82 1012.4
20260502040510 53 173 0.9 2.6 0.00 0.00 0.00 82 1012.4
20260502040413 53 173 0.9 2.6 0.00 0.00 0.00 82 1012.4
20260502040311 53 173 0.9 2.6 0.00 0.00 0.00 82 1012.4
20260502040203 53 173 0.9 2.6 0.00 0.00 0.00 82 1012.4
20260502040101 53 173 0.9 3.5 0.00 0.00 0.00 82 1012.4
20260502040000 53 173 0.9 3.5 0.00 0.00 0.00 82 1012.6
20260502035902 53 173 0.9 4.3 0.00 0.00 0.00 82 1012.6
20260502035759 53 173 0.9 4.3 0.00 0.00 0.00 82 1012.5
20260502035654 53 173 0.9 4.3 0.00 0.00 0.00 82 1012.5
20260502035554 53 173 0.9 4.3 0.00 0.00 0.00 82 1012.6
20260502035454 53 173 1.7 4.3 0.00 0.00 0.00 82 1012.6
20260502035354 53 173 1.7 4.3 0.00 0.00 0.00 82 1012.6
20260502035252 53 171 1.7 4.3 0.00 0.00 0.00 82 1012.6
20260502035148 53 171 1.7 4.3 0.00 0.00 0.00 82 1012.7
20260502035045 53 171 1.7 4.3 0.00 0.00 0.00 82 1012.5
20260502034945 53 171 1.7 4.3 0.00 0.00 0.00 82 1012.5
20260502034842 53 178 1.7 4.3 0.00 0.00 0.00 82 1012.5
20260502034743 53 178 1.7 4.3 0.00 0.00 0.00 82 1012.5
20260502034637 53 159 1.7 5.2 0.00 0.00 0.00 82 1012.6
20260502034537 53 159 1.7 5.2 0.00 0.00 0.00 82 1012.5
20260502034436 53 159 1.7 5.2 0.00 0.00 0.00 82 1012.6
20260502034335 53 159 1.7 5.2 0.00 0.00 0.00 82 1012.5
20260502034234 53 159 1.7 5.2 0.00 0.00 0.00 82 1012.5
20260502034129 53 159 1.7 5.2 0.00 0.00 0.00 82 1012.5
20260502034026 53 159 1.7 5.2 0.00 0.00 0.00 82 1012.5
20260502033928 53 159 1.7 5.2 0.00 0.00 0.00 82 1012.6
20260502033825 53 149 1.7 5.2 0.00 0.00 0.00 82 1012.5
20260502033725 53 180 1.7 5.2 0.00 0.00 0.00 82 1012.5
20260502033621 53 178 1.7 4.3 0.00 0.00 0.00 82 1012.6
20260502033518 53 181 1.7 5.2 0.00 0.00 0.00 82 1012.5
20260502033420 53 181 1.7 5.2 0.00 0.00 0.00 82 1012.5
20260502033317 53 181 1.7 5.2 0.00 0.00 0.00 82 1012.6
20260502033217 53 178 1.7 5.2 0.00 0.00 0.00 82 1012.6
20260502033106 53 178 1.7 5.2 0.00 0.00 0.00 82 1012.7
20260502033008 53 178 1.7 5.2 0.00 0.00 0.00 82 1012.7
20260502032907 53 178 2.6 5.2 0.00 0.00 0.00 82 1012.8
20260502032806 53 171 2.6 5.2 0.00 0.00 0.00 82 1012.7
20260502032707 53 171 2.6 5.2 0.00 0.00 0.00 82 1012.6
20260502032600 53 178 2.6 5.2 0.00 0.00 0.00 82 1012.8
20260502032500 53 157 2.6 4.3 0.00 0.00 0.00 82 1012.8
20260502032402 53 157 2.6 4.3 0.00 0.00 0.00 82 1012.8
20260502032300 53 157 2.6 4.3 0.00 0.00 0.00 82 1012.7
20260502032202 53 177 2.6 4.3 0.00 0.00 0.00 82 1012.8
20260502032057 53 178 2.6 4.3 0.00 0.00 0.00 82 1012.7
20260502031957 53 178 2.6 5.2 0.00 0.00 0.00 82 1012.6
20260502031857 53 160 2.6 5.2 0.00 0.00 0.00 82 1012.7
20260502031756 53 165 1.7 5.2 0.00 0.00 0.00 82 1012.8
20260502031657 53 190 2.6 5.2 0.00 0.00 0.00 82 1012.8
20260502031557 53 191 2.6 5.2 0.00 0.00 0.00 82 1012.8
20260502031454 53 224 2.6 5.2 0.00 0.00 0.00 82 1012.8
20260502031355 53 151 1.7 5.2 0.00 0.00 0.00 82 1012.7
20260502031256 53 151 2.6 5.2 0.00 0.00 0.00 81 1012.8
20260502031155 53 151 2.6 5.2 0.00 0.00 0.00 81 1012.8
20260502031054 53 151 2.6 5.2 0.00 0.00 0.00 81 1012.8
20260502030956 53 153 2.6 4.3 0.00 0.00 0.00 81 1012.8
20260502030850 53 155 2.6 6.1 0.00 0.00 0.00 81 1012.9
20260502030750 53 155 2.6 6.1 0.00 0.00 0.00 81 1012.9
20260502030648 53 156 2.6 6.1 0.00 0.00 0.00 81 1012.9
20260502030550 53 134 2.6 6.1 0.00 0.00 0.00 81 1013.0
20260502030448 53 192 2.6 6.1 0.00 0.00 0.00 81 1012.9
20260502030348 53 165 2.6 6.1 0.00 0.00 0.00 81 1012.9
20260502030249 53 165 2.6 6.1 0.00 0.00 0.00 81 1013.0
20260502030149 53 164 2.6 6.1 0.00 0.00 0.00 81 1012.9
20260502030048 53 165 2.6 6.1 0.00 0.00 0.00 81 1013.0
20260502025948 53 165 1.7 6.1 0.00 0.00 0.00 81 1013.0
20260502025849 53 156 1.7 5.2 0.00 0.00 0.00 81 1013.0
20260502025748 54 157 1.7 5.2 0.00 0.00 0.00 81 1013.0
20260502025648 54 171 1.7 4.3 0.00 0.00 0.00 81 1013.0
20260502025548 54 172 1.7 4.3 0.00 0.00 0.00 81 1013.0
20260502025450 54 172 2.6 7.8 0.00 0.00 0.00 81 1013.0
20260502025348 54 172 2.6 7.8 0.00 0.00 0.00 80 1013.1
20260502025249 54 172 2.6 7.8 0.00 0.00 0.00 80 1013.0
20260502025149 54 172 2.6 7.8 0.00 0.00 0.00 80 1013.0
20260502025052 54 172 2.6 7.8 0.00 0.00 0.00 80 1013.0
20260502024944 54 173 2.6 7.8 0.00 0.00 0.00 80 1013.1
20260502024846 54 173 2.6 7.8 0.00 0.00 0.00 80 1013.1
20260502024744 54 175 2.6 7.8 0.00 0.00 0.00 80 1013.1
20260502024649 54 175 2.6 7.8 0.00 0.00 0.00 80 1013.1
20260502024542 54 174 1.7 7.8 0.00 0.00 0.00 80 1013.1
20260502024442 54 187 1.7 5.2 0.00 0.00 0.00 80 1013.1
20260502024343 54 162 1.7 5.2 0.00 0.00 0.00 80 1013.0
20260502024242 54 161 1.7 5.2 0.00 0.00 0.00 80 1013.1
20260502024143 54 164 0.9 5.2 0.00 0.00 0.00 80 1013.0
20260502024043 54 208 0.9 5.2 0.00 0.00 0.00 80 1013.0
20260502023942 54 211 0.9 3.5 0.00 0.00 0.00 79 1013.0
20260502023842 54 206 0.9 3.5 0.00 0.00 0.00 79 1013.0
20260502023743 54 206 0.9 3.5 0.00 0.00 0.00 79 1013.0
20260502023644 54 206 0.9 3.5 0.00 0.00 0.00 79 1013.0
20260502023544 54 206 1.7 7.8 0.00 0.00 0.00 79 1013.0
20260502023442 54 207 1.7 7.8 0.00 0.00 0.00 79 1012.9
20260502023344 54 207 1.7 7.8 0.00 0.00 0.00 79 1012.9
20260502023242 54 227 1.7 7.8 0.00 0.00 0.00 79 1012.8
20260502023143 54 259 2.6 7.8 0.00 0.00 0.00 79 1012.9
20260502023035 54 259 2.6 7.8 0.00 0.00 0.00 79 1012.9
20260502022934 54 238 2.6 7.8 0.00 0.00 0.00 78 1012.9
20260502022834 54 231 2.6 7.8 0.00 0.00 0.00 78 1012.8
20260502022735 54 231 2.6 7.8 0.00 0.00 0.00 78 1012.8
20260502022635 54 234 2.6 7.8 0.00 0.00 0.00 78 1012.8
20260502022536 54 178 2.6 7.8 0.00 0.00 0.00 78 1012.8
20260502022434 54 148 2.6 7.8 0.00 0.00 0.00 78 1012.7
20260502022336 54 190 1.7 7.8 0.00 0.00 0.00 78 1012.7
20260502022234 54 198 1.7 7.0 0.00 0.00 0.00 78 1012.7
20260502022134 54 163 1.7 7.8 0.00 0.00 0.00 78 1012.8
20260502022035 54 214 2.6 8.7 0.00 0.00 0.00 78 1012.8
20260502021935 54 214 2.6 8.7 0.00 0.00 0.00 78 1012.8
20260502021835 54 236 2.6 8.7 0.00 0.00 0.00 78 1012.8
20260502021736 54 154 2.6 8.7 0.00 0.00 0.00 77 1012.7
20260502021634 54 158 3.5 8.7 0.00 0.00 0.00 77 1012.9
20260502021535 54 232 2.6 8.7 0.00 0.00 0.00 77 1013.0
20260502021434 54 178 2.6 8.7 0.00 0.00 0.00 77 1012.8
20260502021334 55 188 3.5 8.7 0.00 0.00 0.00 77 1012.8
20260502021234 55 175 3.5 8.7 0.00 0.00 0.00 77 1012.8
20260502021135 54 149 3.5 8.7 0.00 0.00 0.00 77 1012.8
20260502021035 55 142 3.5 7.8 0.00 0.00 0.00 77 1012.8
20260502020934 55 200 2.6 7.8 0.00 0.00 0.00 77 1012.7
20260502020834 55 166 2.6 7.8 0.00 0.00 0.00 77 1012.7
20260502020734 55 184 2.6 7.8 0.00 0.00 0.00 77 1012.7
20260502020636 55 207 2.6 7.8 0.00 0.00 0.00 77 1012.8
20260502020535 55 150 2.6 7.0 0.00 0.00 0.00 76 1012.7
20260502020436 55 173 1.7 7.0 0.00 0.00 0.00 76 1012.7
20260502020335 55 198 1.7 7.0 0.00 0.00 0.00 76 1012.7
20260502020234 55 179 1.7 7.0 0.00 0.00 0.00 76 1012.6
20260502020134 55 193 1.7 7.0 0.00 0.00 0.00 76 1012.6
20260502020035 55 211 1.7 7.0 0.00 0.00 0.00 76 1012.7
20260502015934 55 186 1.7 7.0 0.00 0.00 0.00 76 1012.6
20260502015835 55 198 1.7 7.0 0.00 0.00 0.00 76 1012.6
20260502015730 55 186 1.7 6.1 0.00 0.00 0.00 76 1012.7
20260502015630 55 186 1.7 7.8 0.00 0.00 0.00 76 1012.5
20260502015532 55 246 1.7 7.8 0.00 0.00 0.00 75 1012.5
20260502015430 55 246 2.6 7.8 0.00 0.00 0.00 75 1012.6
20260502015332 55 238 2.6 7.8 0.00 0.00 0.00 75 1012.5
20260502015230 55 150 2.6 7.8 0.00 0.00 0.00 75 1012.5
20260502015130 55 176 2.6 7.8 0.00 0.00 0.00 75 1012.5
20260502015031 55 203 2.6 7.8 0.00 0.00 0.00 75 1012.5
20260502014930 55 159 2.6 7.8 0.00 0.00 0.00 75 1012.5
20260502014831 55 194 2.6 7.8 0.00 0.00 0.00 75 1012.4
20260502014730 55 173 2.6 7.8 0.00 0.00 0.00 75 1012.4
20260502014631 55 157 2.6 7.8 0.00 0.00 0.00 75 1012.3
20260502014530 55 194 2.6 7.8 0.00 0.00 0.00 75 1012.3
20260502014434 55 163 2.6 7.8 0.00 0.00 0.00 75 1012.3
20260502014331 55 154 2.6 7.8 0.00 0.00 0.00 75 1012.4
20260502014231 55 145 2.6 7.8 0.00 0.00 0.00 75 1012.3
20260502014130 55 158 2.6 7.8 0.00 0.00 0.00 75 1012.2
20260502014031 55 157 2.6 8.7 0.00 0.00 0.00 75 1012.3
20260502013931 55 163 3.5 8.7 0.00 0.00 0.00 75 1012.2
20260502013830 55 163 3.5 8.7 0.00 0.00 0.00 75 1012.2
20260502013731 55 184 3.5 8.7 0.00 0.00 0.00 75 1012.2
20260502013631 55 175 3.5 8.7 0.00 0.00 0.00 75 1012.2
20260502013533 55 176 3.5 8.7 0.00 0.00 0.00 75 1012.2
20260502013430 55 163 3.5 8.7 0.00 0.00 0.00 75 1012.2
20260502013332 55 161 3.5 8.7 0.00 0.00 0.00 75 1012.3
20260502013231 55 168 3.5 8.7 0.00 0.00 0.00 75 1012.2
20260502013132 55 173 3.5 8.7 0.00 0.00 0.00 74 1012.2
20260502013031 55 202 2.6 8.7 0.00 0.00 0.00 75 1012.2
20260502012931 55 161 2.6 7.8 0.00 0.00 0.00 75 1012.1
20260502012830 55 186 2.6 7.8 0.00 0.00 0.00 75 1012.2
20260502012730 55 171 2.6 7.0 0.00 0.00 0.00 75 1012.2
20260502012630 55 174 1.7 7.0 0.00 0.00 0.00 75 1012.2
20260502012533 55 168 1.7 7.0 0.00 0.00 0.00 74 1012.3
20260502012427 55 175 1.7 5.2 0.00 0.00 0.00 75 1012.2
20260502012327 55 161 1.7 6.1 0.00 0.00 0.00 74 1012.2
20260502012228 55 162 1.7 6.1 0.00 0.00 0.00 75 1012.2
20260502012126 55 162 1.7 6.1 0.00 0.00 0.00 74 1012.2
20260502012026 55 162 1.7 6.1 0.00 0.00 0.00 74 1012.2
20260502011928 55 246 1.7 6.1 0.00 0.00 0.00 74 1012.3
20260502011826 55 166 1.7 6.1 0.00 0.00 0.00 74 1012.3
20260502011727 55 192 1.7 6.1 0.00 0.00 0.00 74 1012.3
20260502011628 55 192 1.7 6.1 0.00 0.00 0.00 74 1012.3
20260502011527 55 192 1.7 6.1 0.00 0.00 0.00 74 1012.3
20260502011426 55 171 1.7 6.1 0.00 0.00 0.00 74 1012.4
20260502011326 55 173 1.7 6.1 0.00 0.00 0.00 74 1012.3
20260502011226 55 174 1.7 7.8 0.00 0.00 0.00 74 1012.3
20260502011127 55 174 1.7 7.8 0.00 0.00 0.00 74 1012.3
20260502011027 55 174 2.6 7.8 0.00 0.00 0.00 74 1012.3
20260502010926 55 196 2.6 7.8 0.00 0.00 0.00 74 1012.3
20260502010827 55 196 2.6 7.8 0.00 0.00 0.00 74 1012.2
20260502010727 55 196 2.6 7.8 0.00 0.00 0.00 74 1012.3
20260502010626 55 205 2.6 7.8 0.00 0.00 0.00 74 1012.2
20260502010526 55 180 2.6 7.8 0.00 0.00 0.00 74 1012.3
20260502010426 55 179 2.6 7.8 0.00 0.00 0.00 74 1012.2
20260502010327 55 177 2.6 7.8 0.00 0.00 0.00 74 1012.2
20260502010226 55 182 2.6 6.1 0.00 0.00 0.00 74 1012.2
20260502010127 55 177 2.6 6.1 0.00 0.00 0.00 74 1012.3
20260502010026 55 178 2.6 6.1 0.00 0.00 0.00 74 1012.3
20260502005927 55 139 2.6 6.1 0.00 0.00 0.00 74 1012.2
20260502005826 55 153 2.6 6.1 0.00 0.00 0.00 74 1012.3
20260502005727 55 205 2.6 6.1 0.00 0.00 0.00 74 1012.3
20260502005627 55 177 2.6 6.1 0.00 0.00 0.00 74 1012.3
20260502005526 55 162 2.6 6.1 0.00 0.00 0.00 74 1012.3
20260502005428 55 170 2.6 6.1 0.00 0.00 0.00 74 1012.2
20260502005326 55 188 2.6 6.1 0.00 0.00 0.00 73 1012.2
20260502005228 55 153 1.7 6.1 0.00 0.00 0.00 74 1012.1
20260502005122 55 175 2.6 6.1 0.00 0.00 0.00 73 1012.2
20260502005020 55 157 2.6 7.8 0.00 0.00 0.00 73 1012.1
20260502004918 55 156 2.6 7.8 0.00 0.00 0.00 73 1012.1
20260502004818 55 172 2.6 7.8 0.00 0.00 0.00 73 1012.1
20260502004718 55 173 2.6 7.8 0.00 0.00 0.00 73 1012.0
20260502004616 55 180 1.7 7.8 0.00 0.00 0.00 73 1012.0
20260502004516 55 191 1.7 7.8 0.00 0.00 0.00 73 1012.1
20260502004414 55 191 1.7 7.8 0.00 0.00 0.00 73 1012.1
20260502004314 55 186 1.7 7.8 0.00 0.00 0.00 73 1012.0
20260502004209 55 194 1.7 7.8 0.00 0.00 0.00 73 1012.1
20260502004059 55 178 1.7 6.1 0.00 0.00 0.00 73 1012.0
20260502003958 56 184 0.9 6.1 0.00 0.00 0.00 73 1012.0
20260502003900 56 183 0.9 6.1 0.00 0.00 0.00 72 1012.0
20260502003758 56 184 0.9 6.1 0.00 0.00 0.00 73 1012.0
20260502003658 56 184 0.9 6.1 0.00 0.00 0.00 72 1012.0
20260502003554 56 184 0.9 6.1 0.00 0.00 0.00 72 1011.8
20260502003453 56 180 0.9 5.2 0.00 0.00 0.00 72 1011.7
20260502003352 56 180 1.7 5.2 0.00 0.00 0.00 72 1011.8
20260502003253 56 222 1.7 5.2 0.00 0.00 0.00 72 1011.7
20260502003153 56 211 1.7 5.2 0.00 0.00 0.00 72 1011.7
20260502003053 56 172 1.7 5.2 0.00 0.00 0.00 72 1011.7
20260502002954 56 172 1.7 5.2 0.00 0.00 0.00 72 1011.6
20260502002850 56 172 1.7 5.2 0.00 0.00 0.00 72 1011.7
20260502002749 56 173 2.6 5.2 0.00 0.00 0.00 72 1011.7
20260502002647 56 171 2.6 5.2 0.00 0.00 0.00 72 1011.7
20260502002537 56 169 1.7 5.2 0.00 0.00 0.00 72 1011.7
20260502002437 56 158 1.7 5.2 0.00 0.00 0.00 71 1011.6
20260502002338 56 167 1.7 5.2 0.00 0.00 0.00 71 1011.6
20260502002236 56 182 1.7 5.2 0.00 0.00 0.00 72 1011.6
20260502002136 56 162 1.7 5.2 0.00 0.00 0.00 71 1011.5
20260502002037 56 178 1.7 5.2 0.00 0.00 0.00 71 1011.5
20260502001934 56 165 1.7 5.2 0.00 0.00 0.00 71 1011.5
20260502001834 56 193 1.7 5.2 0.00 0.00 0.00 71 1011.5
20260502001733 56 219 1.7 5.2 0.00 0.00 0.00 71 1011.4
20260502001631 56 185 1.7 7.0 0.00 0.00 0.00 71 1011.4
20260502001524 56 188 1.7 7.0 0.00 0.00 0.00 71 1011.4
20260502001424 56 149 1.7 7.0 0.00 0.00 0.00 71 1011.3
20260502001324 56 149 1.7 7.0 0.00 0.00 0.00 71 1011.3
20260502001224 56 153 1.7 7.0 0.00 0.00 0.00 71 1011.3
20260502001124 56 164 2.6 7.0 0.00 0.00 0.00 71 1011.4
20260502001018 56 161 2.6 7.0 0.00 0.00 0.00 71 1011.3
20260502000918 56 153 1.7 7.0 0.00 0.00 0.00 71 1011.3
20260502000820 56 152 2.6 7.0 0.00 0.00 0.00 71 1011.2
20260502000718 56 165 1.7 7.0 0.00 0.00 0.00 71 1011.3
20260502000619 56 183 1.7 7.8 0.00 0.00 0.00 71 1011.3
20260502000519 57 184 2.6 7.8 0.00 0.00 0.00 70 1011.4
20260502000419 57 202 2.6 7.8 0.00 0.00 0.00 71 1011.3
20260502000319 57 172 2.6 7.8 0.00 0.00 0.00 71 1011.3
20260502000218 57 161 2.6 7.8 0.00 0.00 0.00 71 1011.3
20260502000114 57 161 2.6 7.8 0.00 0.00 0.00 71 1011.4
20260502000015 57 187 2.6 7.8 0.00 0.00 0.00 70 1011.3
20260501235916 57 174 2.6 7.8 0.00 0.00 0.00 70 1011.3
20260501235814 57 165 2.6 7.8 0.00 0.00 0.00 70 1011.4
20260501235715 57 158 2.6 7.8 0.00 0.00 0.00 70 1011.4
20260501235614 57 188 2.6 6.1 0.00 0.00 0.00 70 1011.3
20260501235515 57 184 2.6 6.1 0.00 0.00 0.00 70 1011.4
20260501235412 57 163 2.6 6.1 0.00 0.00 0.00 70 1011.3
20260501235307 57 161 2.6 5.2 0.00 0.00 0.00 70 1011.3
20260501235207 57 171 2.6 6.1 0.00 0.00 0.00 70 1011.3
20260501235107 57 178 2.6 6.1 0.00 0.00 0.00 71 1011.3
20260501235006 57 157 2.6 6.1 0.00 0.00 0.00 70 1011.3
20260501234906 57 161 2.6 6.1 0.00 0.00 0.00 70 1011.3
20260501234802 57 161 2.6 6.1 0.00 0.00 0.00 70 1011.3
20260501234701 57 185 2.6 6.1 0.00 0.00 0.00 70 1011.2
20260501234602 57 182 2.6 6.1 0.00 0.00 0.00 70 1011.1
20260501234502 57 171 2.6 6.1 0.00 0.00 0.00 69 1011.1
20260501234402 58 168 1.7 6.1 0.00 0.00 0.00 69 1011.2
20260501234303 58 188 1.7 6.1 0.00 0.00 0.00 70 1011.0
20260501234202 58 154 1.7 5.2 0.00 0.00 0.00 70 1011.1
20260501234102 58 157 1.7 5.2 0.00 0.00 0.00 70 1011.0
20260501234002 58 157 1.7 5.2 0.00 0.00 0.00 69 1011.1
20260501233903 58 148 1.7 5.2 0.00 0.00 0.00 69 1011.0
20260501233801 58 190 1.7 5.2 0.00 0.00 0.00 69 1011.0
20260501233701 58 167 1.7 5.2 0.00 0.00 0.00 69 1011.1
20260501233600 58 171 2.6 5.2 0.00 0.00 0.00 69 1011.0
20260501233501 58 171 2.6 5.2 0.00 0.00 0.00 69 1011.1
20260501233401 58 171 2.6 5.2 0.00 0.00 0.00 69 1011.0
20260501233300 58 171 2.6 5.2 0.00 0.00 0.00 68 1010.9
20260501233200 58 171 2.6 5.2 0.00 0.00 0.00 68 1011.0
20260501233058 58 171 2.6 7.0 0.00 0.00 0.00 68 1011.0
20260501232958 58 167 2.6 7.0 0.00 0.00 0.00 68 1011.0
20260501232858 58 159 2.6 7.0 0.00 0.00 0.00 68 1011.1
20260501232758 58 181 2.6 7.0 0.00 0.00 0.00 67 1011.0
20260501232656 58 181 2.6 7.0 0.00 0.00 0.00 67 1011.0
20260501232556 59 166 2.6 7.0 0.00 0.00 0.00 67 1011.0
20260501232456 59 166 2.6 7.0 0.00 0.00 0.00 67 1011.0
20260501232356 59 163 2.6 7.0 0.00 0.00 0.00 67 1011.0
20260501232256 59 163 2.6 7.0 0.00 0.00 0.00 67 1011.0
20260501232154 59 159 2.6 7.0 0.00 0.00 0.00 67 1011.0
20260501232053 59 177 2.6 7.8 0.00 0.00 0.00 67 1011.1
20260501231950 59 178 2.6 7.8 0.00 0.00 0.00 67 1011.0
20260501231851 59 163 2.6 7.8 0.00 0.00 0.00 67 1011.2
20260501231748 59 163 2.6 7.8 0.00 0.00 0.00 66 1011.1
20260501231648 59 162 2.6 7.8 0.00 0.00 0.00 66 1011.1
20260501231548 59 164 3.5 7.8 0.00 0.00 0.00 66 1011.1
20260501231449 59 160 3.5 7.8 0.00 0.00 0.00 66 1011.2
20260501231347 59 155 3.5 7.8 0.00 0.00 0.00 66 1011.2
20260501231246 59 134 3.5 7.8 0.00 0.00 0.00 66 1011.2
20260501231147 60 176 3.5 7.8 0.00 0.00 0.00 65 1011.2
20260501231046 60 139 3.5 7.8 0.00 0.00 0.00 66 1011.2
20260501230946 60 163 3.5 7.8 0.00 0.00 0.00 66 1011.3
20260501230838 60 163 3.5 7.8 0.00 0.00 0.00 65 1011.1
20260501230738 60 169 3.5 7.8 0.00 0.00 0.00 65 1011.1
20260501230639 60 173 3.5 7.8 0.00 0.00 0.00 65 1011.2
20260501230538 60 155 3.5 6.1 0.00 0.00 0.00 65 1011.1
20260501230438 60 163 3.5 6.1 0.00 0.00 0.00 64 1011.1
20260501230335 60 157 3.5 7.0 0.00 0.00 0.00 65 1011.2
20260501230231 60 162 3.5 7.0 0.00 0.00 0.00 65 1011.2
20260501230132 60 153 3.5 7.8 0.00 0.00 0.00 65 1011.1
20260501230032 60 194 3.5 7.8 0.00 0.00 0.00 64 1011.2
20260501225930 60 161 3.5 7.8 0.00 0.00 0.00 64 1011.2
20260501225824 60 190 3.5 7.8 0.00 0.00 0.00 64 1011.2
20260501225725 60 161 3.5 7.8 0.00 0.00 0.00 64 1011.3
20260501225622 60 174 2.6 7.8 0.00 0.00 0.00 64 1011.3
20260501225523 60 175 3.5 7.8 0.00 0.00 0.00 63 1011.3
20260501225420 60 186 2.6 7.8 0.00 0.00 0.00 63 1011.3
20260501225321 60 245 2.6 7.8 0.00 0.00 0.00 63 1011.3
20260501225221 60 166 2.6 7.8 0.00 0.00 0.00 63 1011.3
20260501225120 60 186 2.6 7.0 0.00 0.00 0.00 64 1011.3
20260501225021 60 178 2.6 7.0 0.00 0.00 0.00 64 1011.3
20260501224921 60 178 2.6 7.0 0.00 0.00 0.00 63 1011.4
20260501224820 60 99 2.6 7.0 0.00 0.00 0.00 63 1011.3
20260501224720 60 200 2.6 7.0 0.00 0.00 0.00 63 1011.4
20260501224620 60 163 3.5 7.0 0.00 0.00 0.00 62 1011.4
20260501224519 60 149 3.5 7.0 0.00 0.00 0.00 63 1011.5
20260501224417 60 173 3.5 10.4 0.00 0.00 0.00 62 1011.4
20260501224317 60 170 3.5 10.4 0.00 0.00 0.00 62 1011.3
20260501224217 60 171 3.5 10.4 0.00 0.00 0.00 62 1011.4
20260501224116 60 163 3.5 10.4 0.00 0.00 0.00 62 1011.4
20260501224015 60 188 3.5 10.4 0.00 0.00 0.00 62 1011.4
20260501223917 60 148 3.5 10.4 0.00 0.00 0.00 62 1011.4
20260501223817 60 159 3.5 10.4 0.00 0.00 0.00 62 1011.3
20260501223715 61 130 3.5 10.4 0.00 0.00 0.00 62 1011.4
20260501223609 61 158 3.5 10.4 0.00 0.00 0.00 61 1011.4
20260501223508 61 167 2.6 10.4 0.00 0.00 0.00 62 1011.4
20260501223409 61 153 2.6 7.0 0.00 0.00 0.00 61 1011.3
20260501223308 61 128 2.6 7.0 0.00 0.00 0.00 62 1011.3
20260501223209 61 139 2.6 5.2 0.00 0.00 0.00 62 1011.3
20260501223103 61 174 2.6 5.2 0.00 0.00 0.00 62 1011.3
20260501223002 61 168 2.6 5.2 0.00 0.00 0.00 61 1011.3
20260501222902 61 185 2.6 5.2 0.00 0.00 0.00 61 1011.2
20260501222803 61 196 2.6 5.2 0.00 0.00 0.00 62 1011.3
20260501222703 61 151 2.6 6.1 0.00 0.00 0.00 62 1011.3
20260501222601 61 168 2.6 6.1 0.00 0.00 0.00 61 1011.2
20260501222502 61 166 2.6 6.1 0.00 0.00 0.00 61 1011.2
20260501222403 61 175 2.6 6.1 0.00 0.00 0.00 61 1011.2
20260501222305 61 142 2.6 6.1 0.00 0.00 0.00 61 1011.3
20260501222102 61 163 3.5 7.0 0.00 0.00 0.00 61 1011.3
20260501222002 61 163 3.5 7.8 0.00 0.00 0.00 62 1011.2
20260501221900 61 163 3.5 8.7 0.00 0.00 0.00 61 1011.3
20260501221800 61 170 3.5 8.7 0.00 0.00 0.00 61 1011.3
20260501221701 61 167 3.5 8.7 0.00 0.00 0.00 61 1011.3
20260501221600 61 151 3.5 8.7 0.00 0.00 0.00 61 1011.2
20260501221500 61 159 3.5 8.7 0.00 0.00 0.00 61 1011.3
20260501221357 61 171 3.5 8.7 0.00 0.00 0.00 61 1011.3
20260501221255 61 156 3.5 8.7 0.00 0.00 0.00 61 1011.3
20260501221155 61 200 3.5 8.7 0.00 0.00 0.00 60 1011.3
20260501221054 61 134 3.5 8.7 0.00 0.00 0.00 60 1011.3
20260501220955 61 148 2.6 8.7 0.00 0.00 0.00 61 1011.3
20260501220846 62 142 2.6 7.8 0.00 0.00 0.00 61 1011.3
20260501220746 62 95 2.6 7.8 0.00 0.00 0.00 63 1011.3
20260501220648 62 146 2.6 7.0 0.00 0.00 0.00 62 1011.3
20260501220546 62 144 2.6 7.0 0.00 0.00 0.00 62 1011.3
20260501220445 62 144 2.6 7.0 0.00 0.00 0.00 62 1011.4
20260501220339 62 155 2.6 7.0 0.00 0.00 0.00 61 1011.3
20260501220237 62 182 3.5 7.8 0.00 0.00 0.00 61 1011.3
20260501220139 62 150 3.5 7.8 0.00 0.00 0.00 62 1011.4
20260501220038 62 147 3.5 7.8 0.00 0.00 0.00 61 1011.4
20260501215938 62 150 3.5 7.8 0.00 0.00 0.00 62 1011.4
20260501215836 62 148 4.3 7.8 0.00 0.00 0.00 60 1011.4
20260501215737 62 139 4.3 7.8 0.00 0.00 0.00 61 1011.4
20260501215636 62 138 4.3 7.8 0.00 0.00 0.00 60 1011.4
20260501215536 62 138 4.3 7.8 0.00 0.00 0.00 60 1011.4
20260501215433 62 138 4.3 7.8 0.00 0.00 0.00 59 1011.4
20260501215326 62 113 4.3 7.8 0.00 0.00 0.00 59 1011.4
20260501215226 62 126 3.5 7.8 0.00 0.00 0.00 59 1011.4
20260501215126 62 123 3.5 7.8 0.00 0.00 0.00 60 1011.4
20260501215025 62 162 3.5 7.8 0.00 0.00 0.00 59 1011.4
20260501214922 62 119 3.5 7.8 0.00 0.00 0.00 58 1011.4
20260501214819 62 136 3.5 7.8 0.00 0.00 0.00 58 1011.5
20260501214721 62 150 2.6 6.1 0.00 0.00 0.00 58 1011.5
20260501214618 62 131 2.6 6.1 0.00 0.00 0.00 59 1011.4
20260501214517 63 120 2.6 6.1 0.00 0.00 0.00 58 1011.5
20260501214416 63 154 2.6 8.7 0.00 0.00 0.00 58 1011.6
20260501214311 63 201 2.6 8.7 0.00 0.00 0.00 57 1011.6
20260501214211 63 182 2.6 8.7 0.00 0.00 0.00 58 1011.5
20260501214111 63 167 2.6 8.7 0.00 0.00 0.00 58 1011.5
20260501214009 63 139 2.6 8.7 0.00 0.00 0.00 57 1011.5
20260501213911 63 151 2.6 8.7 0.00 0.00 0.00 60 1011.4
20260501213802 63 171 3.5 8.7 0.00 0.00 0.00 59 1011.4
20260501213703 63 171 3.5 8.7 0.00 0.00 0.00 58 1011.4
20260501213602 63 175 2.6 8.7 0.00 0.00 0.00 57 1011.5
20260501213504 63 156 2.6 8.7 0.00 0.00 0.00 58 1011.5
20260501213401 63 141 2.6 7.0 0.00 0.00 0.00 58 1011.5
20260501213254 63 148 2.6 7.0 0.00 0.00 0.00 58 1011.5
20260501213207 63 138 1.7 7.0 0.00 0.00 0.00 57 1011.5
20260501213053 63 136 1.7 7.0 0.00 0.00 0.00 57 1011.4
20260501212954 63 164 1.7 7.0 0.00 0.00 0.00 56 1011.5
20260501212855 63 143 1.7 7.0 0.00 0.00 0.00 58 1011.5
20260501212751 63 141 2.6 7.0 0.00 0.00 0.00 58 1011.4
20260501212648 63 157 2.6 7.0 0.00 0.00 0.00 59 1011.5
20260501212549 62 154 2.6 7.0 0.00 0.00 0.00 59 1011.5
20260501212448 62 151 2.6 7.0 0.00 0.00 0.00 59 1011.5
20260501212349 62 151 2.6 7.0 0.00 0.00 0.00 58 1011.5
20260501212241 62 150 2.6 7.0 0.00 0.00 0.00 58 1011.5
20260501212138 62 162 3.5 7.0 0.00 0.00 0.00 57 1011.5
20260501212039 62 146 3.5 8.7 0.00 0.00 0.00 58 1011.6
20260501211938 62 146 3.5 8.7 0.00 0.00 0.00 57 1011.5
20260501211839 62 151 3.5 8.7 0.00 0.00 0.00 57 1011.6
20260501211735 62 142 3.5 8.7 0.00 0.00 0.00 58 1011.5
20260501211633 62 160 3.5 8.7 0.00 0.00 0.00 57 1011.5
20260501211532 62 161 3.5 8.7 0.00 0.00 0.00 56 1011.5
20260501211432 62 223 3.5 8.7 0.00 0.00 0.00 57 1011.6
20260501211332 62 165 3.5 8.7 0.00 0.00 0.00 57 1011.7
20260501211227 62 190 3.5 8.7 0.00 0.00 0.00 57 1011.6
20260501211125 62 168 3.5 8.7 0.00 0.00 0.00 56 1011.6
20260501211027 62 134 3.5 7.0 0.00 0.00 0.00 57 1011.7
20260501210926 62 167 3.5 8.7 0.00 0.00 0.00 56 1011.6
20260501210826 62 142 3.5 8.7 0.00 0.00 0.00 57 1011.5
20260501210720 62 144 3.5 8.7 0.00 0.00 0.00 57 1011.6
20260501210621 62 180 3.5 8.7 0.00 0.00 0.00 57 1011.6
20260501210520 62 138 4.3 8.7 0.00 0.00 0.00 57 1011.6
20260501210419 62 128 4.3 8.7 0.00 0.00 0.00 56 1011.7
20260501210317 62 168 4.3 8.7 0.00 0.00 0.00 56 1011.7
20260501210212 62 138 3.5 8.7 0.00 0.00 0.00 57 1011.6
20260501210111 62 166 3.5 8.7 0.00 0.00 0.00 57 1011.6
20260501210012 63 134 3.5 8.7 0.00 0.00 0.00 55 1011.6
20260501205913 63 154 3.5 7.0 0.00 0.00 0.00 54 1011.6
20260501205811 63 125 3.5 7.0 0.00 0.00 0.00 55 1011.6
20260501205704 63 140 3.5 7.0 0.00 0.00 0.00 56 1011.6
20260501205605 63 135 3.5 7.0 0.00 0.00 0.00 55 1011.6
20260501205505 63 133 3.5 7.0 0.00 0.00 0.00 55 1011.6
20260501205405 63 153 3.5 7.0 0.00 0.00 0.00 56 1011.6
20260501205306 63 141 3.5 7.0 0.00 0.00 0.00 55 1011.6
20260501205157 63 138 3.5 7.0 0.00 0.00 0.00 54 1011.6
20260501205058 63 146 3.5 6.1 0.00 0.00 0.00 56 1011.6
20260501204958 63 166 3.5 6.1 0.00 0.00 0.00 55 1011.6
20260501204856 63 130 2.6 6.1 0.00 0.00 0.00 55 1011.6
20260501204754 63 187 2.6 7.0 0.00 0.00 0.00 54 1011.6
20260501204650 63 178 2.6 7.0 0.00 0.00 0.00 55 1011.6
20260501204549 63 172 2.6 7.8 0.00 0.00 0.00 55 1011.6
20260501204449 63 213 2.6 7.8 0.00 0.00 0.00 55 1011.6
20260501204349 63 156 2.6 7.8 0.00 0.00 0.00 55 1011.5
20260501204249 63 150 3.5 9.6 0.00 0.00 0.00 56 1011.5
20260501204145 63 165 3.5 10.4 0.00 0.00 0.00 54 1011.5
20260501204043 63 190 3.5 10.4 0.00 0.00 0.00 55 1011.6
20260501203943 63 150 4.3 10.4 0.00 0.00 0.00 55 1011.6
20260501203843 63 158 4.3 10.4 0.00 0.00 0.00 55 1011.6
20260501203743 63 145 4.3 10.4 0.00 0.00 0.00 54 1011.6
20260501203635 63 162 4.3 10.4 0.00 0.00 0.00 54 1011.6
20260501203533 63 183 4.3 10.4 0.00 0.00 0.00 55 1011.6
20260501203432 63 334 4.3 10.4 0.00 0.00 0.00 53 1011.6
20260501203332 63 198 4.3 10.4 0.00 0.00 0.00 53 1011.6
20260501203233 64 242 4.3 9.6 0.00 0.00 0.00 53 1011.6
20260501203126 64 126 4.3 9.6 0.00 0.00 0.00 53 1011.6
20260501203026 64 143 3.5 9.6 0.00 0.00 0.00 53 1011.6
20260501202927 64 136 3.5 7.0 0.00 0.00 0.00 52 1011.6
20260501202827 64 152 2.6 7.0 0.00 0.00 0.00 53 1011.7
20260501202726 64 163 2.6 7.0 0.00 0.00 0.00 53 1011.7
20260501202621 64 271 2.6 7.0 0.00 0.00 0.00 53 1011.7
20260501202522 64 194 3.5 7.0 0.00 0.00 0.00 53 1011.7
20260501202422 64 146 3.5 7.0 0.00 0.00 0.00 54 1011.7
20260501202323 64 188 2.6 7.0 0.00 0.00 0.00 54 1011.8
20260501202220 64 196 2.6 7.0 0.00 0.00 0.00 55 1011.7
20260501202113 64 155 2.6 7.0 0.00 0.00 0.00 53 1011.7
20260501202013 64 155 2.6 7.0 0.00 0.00 0.00 53 1011.7
20260501201911 64 259 2.6 7.0 0.00 0.00 0.00 54 1011.8
20260501201812 64 182 3.5 7.0 0.00 0.00 0.00 52 1011.7
20260501201711 64 146 3.5 7.0 0.00 0.00 0.00 51 1012.0
20260501201603 64 169 3.5 9.6 0.00 0.00 0.00 52 1012.0
20260501201504 64 66 3.5 9.6 0.00 0.00 0.00 53 1011.8
20260501201404 64 134 3.5 9.6 0.00 0.00 0.00 54 1012.0
20260501201304 64 154 4.3 9.6 0.00 0.00 0.00 53 1012.0
20260501201204 64 136 4.3 9.6 0.00 0.00 0.00 55 1012.3
20260501201100 64 132 5.2 9.6 0.00 0.00 0.00 54 1012.1
20260501200959 64 134 5.2 9.6 0.00 0.00 0.00 54 1012.1
20260501200900 63 150 5.2 9.6 0.00 0.00 0.00 55 1012.1
20260501200801 63 159 5.2 9.6 0.00 0.00 0.00 54 1012.2
20260501200659 63 186 5.2 9.6 0.00 0.00 0.00 55 1012.1
20260501200549 63 168 5.2 9.6 0.00 0.00 0.00 55 1012.1
20260501200449 63 163 5.2 9.6 0.00 0.00 0.00 55 1012.1
20260501200348 63 123 4.3 9.6 0.00 0.00 0.00 55 1012.2
20260501200248 63 111 3.5 9.6 0.00 0.00 0.00 54 1012.2
20260501200149 63 138 3.5 9.6 0.00 0.00 0.00 54 1012.3
20260501200044 63 135 2.6 9.6 0.00 0.00 0.00 53 1012.2
20260501195943 63 134 2.6 8.7 0.00 0.00 0.00 55 1012.3
20260501195843 63 205 2.6 7.8 0.00 0.00 0.00 56 1012.3
20260501195741 63 155 2.6 7.8 0.00 0.00 0.00 54 1012.2
20260501195642 63 92 2.6 7.0 0.00 0.00 0.00 54 1012.3
20260501195540 63 153 2.6 7.0 0.00 0.00 0.00 55 1012.2
20260501195437 63 76 2.6 8.7 0.00 0.00 0.00 55 1012.3
20260501195337 63 327 3.5 9.6 0.00 0.00 0.00 54 1012.2
20260501195236 63 327 3.5 9.6 0.00 0.00 0.00 53 1012.3
20260501195136 63 327 4.3 11.3 0.00 0.00 0.00 53 1012.3
20260501195026 63 327 4.3 11.3 0.00 0.00 0.00 52 1012.3
20260501194927 63 326 4.3 11.3 0.00 0.00 0.00 53 1012.3
20260501194826 63 127 4.3 11.3 0.00 0.00 0.00 51 1012.3
20260501194725 63 130 4.3 11.3 0.00 0.00 0.00 51 1012.3
20260501194627 63 143 4.3 11.3 0.00 0.00 0.00 51 1012.4
20260501194521 64 212 4.3 11.3 0.00 0.00 0.00 51 1012.3
20260501194421 64 167 3.5 11.3 0.00 0.00 0.00 52 1012.4
20260501194321 64 125 3.5 11.3 0.00 0.00 0.00 51 1012.4
20260501194220 64 187 3.5 11.3 0.00 0.00 0.00 52 1012.4
20260501194121 64 155 3.5 7.8 0.00 0.00 0.00 52 1012.4
20260501194014 64 165 3.5 8.7 0.00 0.00 0.00 53 1012.4
20260501193914 64 169 3.5 8.7 0.00 0.00 0.00 52 1012.4
20260501193814 64 167 3.5 8.7 0.00 0.00 0.00 52 1012.4
20260501193714 64 312 3.5 8.7 0.00 0.00 0.00 54 1012.4
20260501193614 64 166 4.3 8.7 0.00 0.00 0.00 53 1012.5
20260501193504 64 196 4.3 8.7 0.00 0.00 0.00 52 1012.5
20260501193405 64 186 4.3 8.7 0.00 0.00 0.00 53 1012.5
20260501193305 64 147 4.3 8.7 0.00 0.00 0.00 52 1012.5
20260501193205 64 128 4.3 9.6 0.00 0.00 0.00 54 1012.4
20260501193105 64 170 5.2 12.2 0.00 0.00 0.00 52 1012.5
20260501193000 64 185 5.2 12.2 0.00 0.00 0.00 52 1012.6
20260501192859 64 168 5.2 12.2 0.00 0.00 0.00 52 1012.5
20260501192800 64 256 5.2 12.2 0.00 0.00 0.00 51 1012.6
20260501192702 64 142 4.3 12.2 0.00 0.00 0.00 52 1012.7
20260501192558 64 147 4.3 12.2 0.00 0.00 0.00 50 1012.8
20260501192455 64 226 4.3 12.2 0.00 0.00 0.00 51 1012.8
20260501192352 64 163 4.3 12.2 0.00 0.00 0.00 51 1012.9
20260501192253 64 138 4.3 12.2 0.00 0.00 0.00 51 1012.8
20260501192151 64 143 4.3 12.2 0.00 0.00 0.00 50 1012.9
20260501192053 64 161 3.5 9.6 0.00 0.00 0.00 52 1012.9
20260501191945 64 199 3.5 7.0 0.00 0.00 0.00 51 1012.9
20260501191843 64 142 4.3 9.6 0.00 0.00 0.00 52 1013.0
20260501191743 64 167 4.3 9.6 0.00 0.00 0.00 54 1013.0
20260501191641 64 149 4.3 9.6 0.00 0.00 0.00 52 1013.1
20260501191542 64 150 4.3 9.6 0.00 0.00 0.00 51 1013.0
20260501191443 64 133 4.3 9.6 0.00 0.00 0.00 52 1013.1
20260501191339 64 156 3.5 9.6 0.00 0.00 0.00 54 1013.1
20260501191239 64 218 3.5 9.6 0.00 0.00 0.00 52 1013.1
20260501191139 64 140 3.5 9.6 0.00 0.00 0.00 51 1013.1
20260501191037 64 136 3.5 9.6 0.00 0.00 0.00 50 1013.1
20260501190933 64 159 3.5 9.6 0.00 0.00 0.00 50 1013.1
20260501190832 64 125 2.6 8.7 0.00 0.00 0.00 50 1013.2
20260501190732 64 161 2.6 7.0 0.00 0.00 0.00 52 1013.2
20260501190633 64 159 2.6 7.0 0.00 0.00 0.00 51 1013.2
20260501190530 64 232 2.6 7.0 0.00 0.00 0.00 49 1013.1
20260501190423 64 252 2.6 7.0 0.00 0.00 0.00 51 1013.2
20260501190323 64 229 2.6 7.0 0.00 0.00 0.00 50 1013.2
20260501190225 64 269 2.6 7.0 0.00 0.00 0.00 54 1013.2
20260501190121 64 166 2.6 7.0 0.00 0.00 0.00 51 1013.2
20260501190021 63 148 2.6 7.0 0.00 0.00 0.00 52 1013.2
20260501185919 63 121 3.5 7.8 0.00 0.00 0.00 51 1013.2
20260501185819 63 80 3.5 9.6 0.00 0.00 0.00 50 1013.3
20260501185717 63 192 3.5 9.6 0.00 0.00 0.00 54 1013.2
20260501185616 63 144 3.5 9.6 0.00 0.00 0.00 51 1013.3
20260501185514 63 146 3.5 9.6 0.00 0.00 0.00 50 1013.4
20260501185409 63 201 3.5 9.6 0.00 0.00 0.00 50 1013.4
20260501185310 63 141 2.6 9.6 0.00 0.00 0.00 52 1013.4
20260501185209 63 136 2.6 9.6 0.00 0.00 0.00 52 1013.4
20260501185111 63 154 3.5 9.6 0.00 0.00 0.00 50 1013.4
20260501185008 63 151 3.5 10.4 0.00 0.00 0.00 51 1013.5
20260501184903 63 157 3.5 10.4 0.00 0.00 0.00 53 1013.5
20260501184801 63 153 3.5 10.4 0.00 0.00 0.00 53 1013.5
20260501184702 63 123 3.5 10.4 0.00 0.00 0.00 54 1013.4
20260501184601 62 140 3.5 10.4 0.00 0.00 0.00 55 1013.5
20260501184502 62 122 4.3 10.4 0.00 0.00 0.00 52 1013.4
20260501184403 62 117 4.3 10.4 0.00 0.00 0.00 52 1013.5
20260501184301 62 119 5.2 10.4 0.00 0.00 0.00 49 1013.4
20260501184159 62 113 5.2 10.4 0.00 0.00 0.00 50 1013.4
20260501184059 62 140 5.2 10.4 0.00 0.00 0.00 51 1013.4
20260501184000 62 153 5.2 9.6 0.00 0.00 0.00 51 1013.4
20260501183900 62 184 5.2 10.4 0.00 0.00 0.00 50 1013.4
20260501183801 62 163 5.2 10.4 0.00 0.00 0.00 52 1013.4
20260501183700 62 100 6.1 10.4 0.00 0.00 0.00 52 1013.5
20260501183600 62 137 5.2 10.4 0.00 0.00 0.00 51 1013.5
20260501183500 62 135 5.2 10.4 0.00 0.00 0.00 52 1013.5
20260501183359 62 107 5.2 10.4 0.00 0.00 0.00 52 1013.5
20260501183301 62 133 4.3 10.4 0.00 0.00 0.00 51 1013.5
20260501183154 62 165 4.3 10.4 0.00 0.00 0.00 51 1013.5
20260501183054 62 130 4.3 10.4 0.00 0.00 0.00 51 1013.4
20260501182955 62 165 4.3 10.4 0.00 0.00 0.00 52 1013.5
20260501182854 62 132 3.5 9.6 0.00 0.00 0.00 50 1013.7
20260501182754 62 126 3.5 9.6 0.00 0.00 0.00 51 1013.7
20260501182650 63 102 3.5 8.7 0.00 0.00 0.00 49 1013.7
20260501182550 63 121 3.5 8.7 0.00 0.00 0.00 48 1013.5
20260501182451 63 159 3.5 8.7 0.00 0.00 0.00 50 1013.7
20260501182351 63 153 3.5 8.7 0.00 0.00 0.00 49 1013.8
20260501182248 63 144 3.5 8.7 0.00 0.00 0.00 46 1013.8
20260501182142 63 146 3.5 8.7 0.00 0.00 0.00 47 1013.8
20260501182042 63 128 3.5 8.7 0.00 0.00 0.00 48 1013.8
20260501181939 63 188 3.5 8.7 0.00 0.00 0.00 49 1013.9
20260501181840 63 182 3.5 8.7 0.00 0.00 0.00 48 1013.9
20260501181740 63 176 3.5 8.7 0.00 0.00 0.00 50 1013.9
20260501181640 63 169 3.5 7.8 0.00 0.00 0.00 52 1013.9
20260501181539 62 120 3.5 7.8 0.00 0.00 0.00 50 1013.9
20260501181439 62 169 3.5 7.8 0.00 0.00 0.00 49 1014.0
20260501181338 62 169 4.3 7.8 0.00 0.00 0.00 49 1013.9
20260501181238 62 190 4.3 7.8 0.00 0.00 0.00 51 1013.8
20260501181139 62 283 4.3 11.3 0.00 0.00 0.00 49 1013.9
20260501181037 62 175 4.3 11.3 0.00 0.00 0.00 51 1013.9
20260501180937 62 122 4.3 11.3 0.00 0.00 0.00 50 1013.9
20260501180839 62 123 4.3 11.3 0.00 0.00 0.00 48 1014.0
20260501180739 62 123 4.3 11.3 0.00 0.00 0.00 49 1013.9
20260501180637 61 121 4.3 11.3 0.00 0.00 0.00 51 1014.0
20260501180537 61 160 5.2 11.3 0.00 0.00 0.00 50 1014.0
20260501180434 61 171 5.2 11.3 0.00 0.00 0.00 48 1014.0
20260501180335 61 146 5.2 11.3 0.00 0.00 0.00 48 1014.0
20260501180234 61 115 5.2 11.3 0.00 0.00 0.00 52 1014.0
20260501180134 61 117 6.1 10.4 0.00 0.00 0.00 52 1013.9
20260501180035 61 167 6.1 10.4 0.00 0.00 0.00 50 1014.0
20260501175931 61 136 7.0 10.4 0.00 0.00 0.00 48 1014.0
20260501175830 61 136 7.0 10.4 0.00 0.00 0.00 49 1014.0
20260501175730 61 144 7.0 10.4 0.00 0.00 0.00 50 1014.0
20260501175631 61 107 6.1 10.4 0.00 0.00 0.00 51 1014.0
20260501175528 61 114 6.1 10.4 0.00 0.00 0.00 50 1014.0
20260501175423 61 121 5.2 10.4 0.00 0.00 0.00 50 1014.0
20260501175322 61 99 5.2 10.4 0.00 0.00 0.00 49 1014.0
20260501175223 62 114 4.3 10.4 0.00 0.00 0.00 50 1014.0
20260501175122 62 123 4.3 10.4 0.00 0.00 0.00 50 1014.1
20260501175023 62 96 3.5 9.6 0.00 0.00 0.00 51 1014.1
20260501174916 62 105 3.5 8.7 0.00 0.00 0.00 49 1014.2
20260501174816 62 115 3.5 7.0 0.00 0.00 0.00 50 1014.1
20260501174713 62 110 3.5 8.7 0.00 0.00 0.00 50 1014.2
20260501174615 62 127 3.5 8.7 0.00 0.00 0.00 52 1014.1
20260501174513 62 101 3.5 8.7 0.00 0.00 0.00 50 1014.1
20260501174406 62 172 3.5 8.7 0.00 0.00 0.00 50 1014.1
20260501174305 61 155 3.5 8.7 0.00 0.00 0.00 52 1014.3
20260501174207 61 120 3.5 8.7 0.00 0.00 0.00 50 1014.1
20260501174106 61 158 3.5 8.7 0.00 0.00 0.00 50 1014.1
20260501174006 61 169 2.6 8.7 0.00 0.00 0.00 52 1014.1
20260501173903 61 146 2.6 8.7 0.00 0.00 0.00 50 1014.1
20260501173803 62 121 2.6 8.7 0.00 0.00 0.00 49 1014.0
20260501173704 62 94 2.6 7.8 0.00 0.00 0.00 51 1014.1
20260501173603 62 103 3.5 7.8 0.00 0.00 0.00 50 1014.1
20260501173503 62 124 3.5 8.7 0.00 0.00 0.00 50 1014.1
20260501173404 62 82 3.5 9.6 0.00 0.00 0.00 49 1014.1
20260501173304 62 181 3.5 10.4 0.00 0.00 0.00 50 1014.2
20260501173203 62 111 3.5 10.4 0.00 0.00 0.00 50 1014.2
20260501173105 61 66 4.3 10.4 0.00 0.00 0.00 52 1014.1
20260501173004 61 117 4.3 10.4 0.00 0.00 0.00 52 1014.1
20260501172904 61 111 4.3 10.4 0.00 0.00 0.00 52 1014.1
20260501172805 61 98 4.3 10.4 0.00 0.00 0.00 51 1014.2
20260501172659 61 138 3.5 10.4 0.00 0.00 0.00 50 1014.1
20260501172559 61 148 3.5 10.4 0.00 0.00 0.00 50 1014.2
20260501172455 62 146 2.6 10.4 0.00 0.00 0.00 51 1014.2
20260501172356 62 116 2.6 10.4 0.00 0.00 0.00 49 1014.3
20260501172256 62 142 2.6 8.7 0.00 0.00 0.00 50 1014.2
20260501172153 62 134 2.6 8.7 0.00 0.00 0.00 49 1014.3
20260501172049 62 168 1.7 8.7 0.00 0.00 0.00 49 1014.2
20260501171850 62 103 1.7 6.1 0.00 0.00 0.00 48 1014.3
20260501171751 62 145 1.7 6.1 0.00 0.00 0.00 47 1014.4
20260501171649 62 151 1.7 6.1 0.00 0.00 0.00 48 1014.4
20260501171550 62 147 1.7 6.1 0.00 0.00 0.00 50 1014.4
20260501171448 62 152 1.7 6.1 0.00 0.00 0.00 49 1014.4
20260501171349 62 127 1.7 6.1 0.00 0.00 0.00 48 1014.4
20260501171245 62 127 1.7 6.1 0.00 0.00 0.00 47 1014.4
20260501171146 62 127 1.7 6.1 0.00 0.00 0.00 49 1014.5
20260501171044 62 84 1.7 6.1 0.00 0.00 0.00 49 1014.5
20260501170943 62 89 1.7 6.1 0.00 0.00 0.00 51 1014.5
20260501170842 61 88 2.6 6.1 0.00 0.00 0.00 48 1014.4
20260501170741 61 140 1.7 6.1 0.00 0.00 0.00 50 1014.4
20260501170641 61 153 1.7 4.3 0.00 0.00 0.00 48 1014.5
20260501170539 61 192 1.7 4.3 0.00 0.00 0.00 48 1014.4
20260501170438 61 193 1.7 4.3 0.00 0.00 0.00 49 1014.4
20260501170339 61 252 1.7 4.3 0.00 0.00 0.00 49 1014.5
20260501170237 61 263 1.7 4.3 0.00 0.00 0.00 48 1014.5
20260501170139 61 293 1.7 4.3 0.00 0.00 0.00 47 1014.4
20260501170038 61 204 1.7 4.3 0.00 0.00 0.00 46 1014.6
20260501165936 61 215 1.7 6.1 0.00 0.00 0.00 47 1014.6
20260501165836 61 303 1.7 6.1 0.00 0.00 0.00 49 1014.5
20260501165735 61 168 2.6 6.1 0.00 0.00 0.00 49 1014.6
20260501165635 61 169 2.6 6.1 0.00 0.00 0.00 50 1014.6
20260501165532 61 142 2.6 7.8 0.00 0.00 0.00 49 1014.6
20260501165431 60 142 2.6 7.8 0.00 0.00 0.00 49 1014.6
20260501165331 60 169 3.5 7.8 0.00 0.00 0.00 50 1014.6
20260501165230 60 146 3.5 7.8 0.00 0.00 0.00 49 1014.6
20260501165128 60 146 3.5 7.8 0.00 0.00 0.00 51 1014.6
20260501165026 60 135 3.5 7.8 0.00 0.00 0.00 51 1014.6
20260501164925 60 179 3.5 7.8 0.00 0.00 0.00 48 1014.7
20260501164825 60 171 3.5 7.8 0.00 0.00 0.00 58 1014.6
20260501164723 60 184 3.5 8.7 0.00 0.00 0.00 58 1014.6
20260501164624 59 204 3.5 8.7 0.00 0.00 0.00 55 1014.7
20260501164523 59 86 3.5 8.7 0.00 0.00 0.00 56 1014.7
20260501164423 59 94 3.5 8.7 0.00 0.00 0.00 52 1014.7
20260501164323 59 80 3.5 8.7 0.00 0.00 0.00 53 1014.7
20260501164225 59 138 3.5 8.7 0.00 0.00 0.00 53 1014.7
20260501164122 59 186 3.5 8.7 0.00 0.00 0.00 52 1014.6
20260501164020 59 196 3.5 8.7 0.00 0.00 0.00 52 1014.7
20260501163921 59 134 3.5 8.7 0.00 0.00 0.00 53 1014.7
20260501163818 59 141 3.5 7.8 0.00 0.00 0.00 53 1014.7
20260501163716 58 125 3.5 7.8 0.00 0.00 0.00 52 1014.7
20260501163616 58 84 3.5 7.8 0.00 0.00 0.00 51 1014.7
20260501163515 58 112 3.5 7.8 0.00 0.00 0.00 52 1014.7
20260501163415 58 113 3.5 7.8 0.00 0.00 0.00 52 1014.7
20260501163316 58 170 3.5 7.8 0.00 0.00 0.00 53 1014.9
20260501163212 58 180 3.5 7.8 0.00 0.00 0.00 52 1015.0
20260501163111 58 132 3.5 7.8 0.00 0.00 0.00 53 1015.0
20260501162912 58 146 3.5 6.1 0.00 0.00 0.00 53 1015.1
20260501162811 58 144 3.5 6.1 0.00 0.00 0.00 53 1015.1
20260501162713 58 126 3.5 7.0 0.00 0.00 0.00 53 1015.1
20260501162509 58 109 4.3 9.6 0.00 0.00 0.00 53 1015.1
20260501162409 58 66 4.3 9.6 0.00 0.00 0.00 53 1015.0
20260501162309 58 122 5.2 9.6 0.00 0.00 0.00 53 1015.1
20260501162209 58 105 5.2 9.6 0.00 0.00 0.00 53 1015.0
20260501162110 58 113 5.2 9.6 0.00 0.00 0.00 53 1015.0
20260501162010 58 84 6.1 9.6 0.00 0.00 0.00 52 1015.0
20260501161911 58 98 6.1 9.6 0.00 0.00 0.00 52 1015.0
20260501161809 58 98 6.1 9.6 0.00 0.00 0.00 54 1015.0
20260501161709 58 117 5.2 9.6 0.00 0.00 0.00 52 1015.1
20260501161610 58 137 5.2 9.6 0.00 0.00 0.00 55 1015.0
20260501161509 58 100 4.3 9.6 0.00 0.00 0.00 54 1015.0
20260501161409 58 113 4.3 9.6 0.00 0.00 0.00 53 1015.0
20260501161310 58 123 3.5 9.6 0.00 0.00 0.00 53 1014.9
20260501161210 58 103 3.5 8.7 0.00 0.00 0.00 54 1015.0
20260501161110 58 112 2.6 8.7 0.00 0.00 0.00 57 1015.0
20260501161009 58 107 2.6 7.0 0.00 0.00 0.00 54 1015.1
20260501160910 58 92 2.6 7.0 0.00 0.00 0.00 56 1015.0
20260501160809 58 120 2.6 7.0 0.00 0.00 0.00 55 1015.0
20260501160710 58 125 2.6 7.0 0.00 0.00 0.00 56 1015.1
20260501160610 57 100 2.6 7.0 0.00 0.00 0.00 56 1015.1
20260501160510 57 71 2.6 7.0 0.00 0.00 0.00 55 1015.1
20260501160409 57 113 2.6 7.0 0.00 0.00 0.00 56 1015.1
20260501160309 57 128 2.6 7.0 0.00 0.00 0.00 54 1015.1
20260501160211 57 113 2.6 7.0 0.00 0.00 0.00 55 1015.1
20260501160109 57 163 2.6 7.0 0.00 0.00 0.00 55 1015.1
20260501160011 57 128 2.6 7.0 0.00 0.00 0.00 57 1015.1
20260501155906 57 161 2.6 7.0 0.00 0.00 0.00 56 1015.4
20260501155807 57 96 2.6 7.0 0.00 0.00 0.00 56 1015.3
20260501155706 57 218 2.6 7.0 0.00 0.00 0.00 54 1015.3
20260501155607 57 218 2.6 7.0 0.00 0.00 0.00 54 1015.3
20260501155506 57 211 2.6 7.0 0.00 0.00 0.00 53 1015.4
20260501155405 57 194 3.5 7.0 0.00 0.00 0.00 54 1015.4
20260501155307 57 165 3.5 7.0 0.00 0.00 0.00 55 1015.4
20260501155206 57 142 3.5 7.0 0.00 0.00 0.00 56 1015.4
20260501155105 57 121 3.5 7.0 0.00 0.00 0.00 55 1015.3
20260501155006 56 109 3.5 7.0 0.00 0.00 0.00 56 1015.4
20260501154905 57 127 3.5 7.0 0.00 0.00 0.00 56 1015.4
20260501154806 56 142 3.5 7.8 0.00 0.00 0.00 56 1015.4
20260501154705 56 331 4.3 7.8 0.00 0.00 0.00 56 1015.4
20260501154605 56 105 4.3 7.8 0.00 0.00 0.00 55 1015.4
20260501154506 56 105 4.3 8.7 0.00 0.00 0.00 55 1015.4
20260501154406 57 106 4.3 8.7 0.00 0.00 0.00 57 1015.5
20260501154306 57 95 4.3 8.7 0.00 0.00 0.00 57 1015.5
20260501154206 57 119 5.2 8.7 0.00 0.00 0.00 57 1015.5
20260501154106 57 85 5.2 8.7 0.00 0.00 0.00 56 1015.5
20260501154006 57 110 4.3 8.7 0.00 0.00 0.00 57 1015.5
20260501153906 57 113 4.3 8.7 0.00 0.00 0.00 60 1015.5
20260501153805 57 64 4.3 8.7 0.00 0.00 0.00 59 1015.5
20260501153705 57 87 3.5 8.7 0.00 0.00 0.00 57 1015.5
20260501153606 57 105 3.5 8.7 0.00 0.00 0.00 60 1015.5
20260501153505 56 103 2.6 7.8 0.00 0.00 0.00 58 1015.5
20260501153406 57 97 1.7 7.8 0.00 0.00 0.00 59 1015.5
20260501153306 57 83 1.7 7.8 0.00 0.00 0.00 60 1015.5
20260501153205 56 40 0.9 7.8 0.00 0.00 0.00 60 1015.5
20260501153105 56 150 0.9 7.8 0.00 0.00 0.00 57 1015.5
20260501153007 56 115 0.9 7.8 0.00 0.00 0.00 57 1015.5
20260501152905 56 108 0.9 7.8 0.00 0.00 0.00 58 1015.6
20260501152805 57 107 0.0 2.6 0.00 0.00 0.00 57 1015.4
20260501152707 57 109 0.9 2.6 0.00 0.00 0.00 58 1015.4
20260501152602 57 147 0.9 4.3 0.00 0.00 0.00 58 1015.5
20260501152501 57 139 0.9 4.3 0.00 0.00 0.00 61 1015.4
20260501152401 57 96 1.7 6.1 0.00 0.00 0.00 62 1015.4
20260501152301 56 108 1.7 7.8 0.00 0.00 0.00 62 1015.4
20260501152201 56 96 1.7 7.8 0.00 0.00 0.00 62 1015.4
20260501152102 56 67 1.7 7.8 0.00 0.00 0.00 61 1015.4
20260501152002 56 62 2.6 7.8 0.00 0.00 0.00 61 1015.4
20260501151901 56 61 2.6 7.8 0.00 0.00 0.00 61 1015.5
20260501151802 56 61 2.6 7.8 0.00 0.00 0.00 61 1015.5
20260501151701 56 61 2.6 7.8 0.00 0.00 0.00 60 1015.5
20260501151601 56 75 2.6 7.8 0.00 0.00 0.00 62 1015.6
20260501151501 55 65 2.6 7.8 0.00 0.00 0.00 63 1015.6
20260501151401 55 56 2.6 7.8 0.00 0.00 0.00 62 1015.6
20260501151302 55 48 2.6 7.8 0.00 0.00 0.00 64 1015.5
20260501151204 55 63 2.6 7.8 0.00 0.00 0.00 62 1015.6
20260501151101 55 126 1.7 7.8 0.00 0.00 0.00 63 1015.5
20260501151001 55 53 1.7 7.8 0.00 0.00 0.00 62 1015.6
20260501150903 55 54 1.7 7.8 0.00 0.00 0.00 61 1015.5
20260501150801 55 53 1.7 7.8 0.00 0.00 0.00 63 1015.5
20260501150701 55 19 1.7 7.8 0.00 0.00 0.00 63 1015.6
20260501150601 55 22 1.7 7.8 0.00 0.00 0.00 63 1015.5
20260501150502 54 94 1.7 6.1 0.00 0.00 0.00 63 1015.6
20260501150401 54 36 1.7 6.1 0.00 0.00 0.00 65 1015.6
20260501150301 54 54 1.7 6.1 0.00 0.00 0.00 62 1015.6
20260501150201 54 5 1.7 6.1 0.00 0.00 0.00 63 1015.6
20260501145954 54 0 2.6 6.1 0.00 0.00 0.00 61 1015.6
20260501145853 54 0 2.6 7.0 0.00 0.00 0.00 62 1015.5
20260501145753 54 66 2.6 7.0 0.00 0.00 0.00 63 1015.5
20260501145653 54 76 2.6 7.0 0.00 0.00 0.00 64 1015.5
20260501145553 54 153 2.6 7.0 0.00 0.00 0.00 61 1015.5
20260501145454 54 351 2.6 7.0 0.00 0.00 0.00 62 1015.5
20260501145354 54 0 2.6 7.0 0.00 0.00 0.00 62 1015.6
20260501145254 54 355 2.6 7.0 0.00 0.00 0.00 61 1015.6
20260501145154 54 10 2.6 7.0 0.00 0.00 0.00 62 1015.5
20260501145053 54 13 2.6 7.0 0.00 0.00 0.00 61 1015.5
20260501144954 54 17 2.6 7.0 0.00 0.00 0.00 61 1015.5
20260501144853 54 345 1.7 6.1 0.00 0.00 0.00 61 1015.5
20260501144754 54 26 1.7 5.2 0.00 0.00 0.00 65 1015.5
20260501144654 54 85 2.6 6.1 0.00 0.00 0.00 65 1015.6
20260501144554 54 19 2.6 6.1 0.00 0.00 0.00 62 1015.5
20260501144453 54 324 2.6 6.1 0.00 0.00 0.00 61 1015.6
20260501144353 54 311 2.6 6.1 0.00 0.00 0.00 62 1015.6
20260501144253 54 304 2.6 6.1 0.00 0.00 0.00 63 1015.7
20260501144153 54 355 2.6 6.1 0.00 0.00 0.00 63 1015.6
20260501144054 54 21 2.6 6.1 0.00 0.00 0.00 61 1015.7
20260501143953 54 87 2.6 6.1 0.00 0.00 0.00 60 1015.5
20260501143853 54 87 3.5 6.1 0.00 0.00 0.00 61 1015.6
20260501143753 54 90 3.5 7.0 0.00 0.00 0.00 62 1015.6
20260501143653 54 91 2.6 7.0 0.00 0.00 0.00 61 1015.6
20260501143553 54 110 2.6 7.0 0.00 0.00 0.00 61 1015.6
20260501143454 54 128 2.6 7.0 0.00 0.00 0.00 61 1015.6
20260501143353 54 93 3.5 7.0 0.00 0.00 0.00 61 1015.6
20260501143254 54 109 3.5 7.0 0.00 0.00 0.00 62 1015.6
20260501143153 53 145 3.5 7.8 0.00 0.00 0.00 61 1015.6
20260501143054 53 144 3.5 7.8 0.00 0.00 0.00 63 1015.7
20260501142954 53 136 3.5 7.8 0.00 0.00 0.00 64 1015.6
20260501142854 53 98 3.5 7.8 0.00 0.00 0.00 62 1015.7
20260501142755 53 148 3.5 7.8 0.00 0.00 0.00 63 1015.6
20260501142651 53 142 3.5 7.8 0.00 0.00 0.00 63 1015.7
20260501142549 53 142 3.5 7.8 0.00 0.00 0.00 63 1015.6
20260501142450 53 141 3.5 7.8 0.00 0.00 0.00 63 1015.6
20260501142349 53 116 3.5 7.8 0.00 0.00 0.00 66 1015.6
20260501142250 53 126 3.5 7.8 0.00 0.00 0.00 64 1015.6
20260501142149 53 100 3.5 7.8 0.00 0.00 0.00 64 1015.7
20260501142050 52 119 3.5 7.8 0.00 0.00 0.00 66 1015.6
20260501141950 52 136 3.5 7.8 0.00 0.00 0.00 65 1015.6
20260501141849 52 96 4.3 7.8 0.00 0.00 0.00 64 1015.6
20260501141749 52 117 3.5 7.8 0.00 0.00 0.00 65 1015.6
20260501141650 52 134 3.5 7.8 0.00 0.00 0.00 64 1015.6
20260501141550 52 96 3.5 7.8 0.00 0.00 0.00 63 1015.5
20260501141449 52 135 4.3 7.8 0.00 0.00 0.00 63 1015.5
20260501141349 52 157 4.3 7.8 0.00 0.00 0.00 63 1015.5
20260501141251 52 115 4.3 7.8 0.00 0.00 0.00 65 1015.6
20260501141148 52 82 3.5 7.8 0.00 0.00 0.00 64 1015.6
20260501141049 51 157 3.5 7.8 0.00 0.00 0.00 65 1015.6
20260501140949 51 157 3.5 7.8 0.00 0.00 0.00 65 1015.5
20260501140849 51 114 4.3 7.8 0.00 0.00 0.00 65 1015.6
20260501140748 51 194 4.3 7.8 0.00 0.00 0.00 64 1015.5
20260501140645 51 194 4.3 7.8 0.00 0.00 0.00 63 1015.6
20260501140543 51 148 4.3 7.8 0.00 0.00 0.00 63 1015.6
20260501140444 51 145 4.3 7.8 0.00 0.00 0.00 63 1015.6
20260501140343 51 144 4.3 7.8 0.00 0.00 0.00 64 1015.5
20260501140241 51 141 4.3 7.8 0.00 0.00 0.00 65 1015.5
20260501140141 51 140 4.3 7.8 0.00 0.00 0.00 66 1015.5
20260501140039 51 133 4.3 7.8 0.00 0.00 0.00 66 1015.5
20260501135937 51 102 4.3 7.8 0.00 0.00 0.00 65 1015.5
20260501135838 51 101 4.3 7.8 0.00 0.00 0.00 66 1015.5
20260501135728 51 83 4.3 7.8 0.00 0.00 0.00 65 1015.5
20260501135628 51 88 4.3 7.8 0.00 0.00 0.00 65 1015.5
20260501135528 51 80 4.3 7.8 0.00 0.00 0.00 64 1015.5
20260501135429 51 111 4.3 8.7 0.00 0.00 0.00 64 1015.6
20260501135326 51 125 4.3 8.7 0.00 0.00 0.00 65 1015.6
20260501135220 51 110 4.3 8.7 0.00 0.00 0.00 65 1015.6
20260501135119 51 106 4.3 8.7 0.00 0.00 0.00 65 1015.6
20260501135021 51 117 4.3 8.7 0.00 0.00 0.00 65 1015.7
20260501134919 51 137 4.3 8.7 0.00 0.00 0.00 64 1015.7
20260501134820 51 144 4.3 9.6 0.00 0.00 0.00 64 1015.6
20260501134716 51 117 4.3 9.6 0.00 0.00 0.00 65 1015.6
20260501134613 50 128 5.2 9.6 0.00 0.00 0.00 65 1015.6
20260501134514 50 147 5.2 9.6 0.00 0.00 0.00 65 1015.6
20260501134414 50 111 5.2 9.6 0.00 0.00 0.00 65 1015.6
20260501134314 50 100 5.2 9.6 0.00 0.00 0.00 66 1015.6
20260501134205 50 93 6.1 9.6 0.00 0.00 0.00 65 1015.6
20260501134103 50 132 6.1 9.6 0.00 0.00 0.00 66 1015.6
20260501134004 50 123 5.2 9.6 0.00 0.00 0.00 66 1015.5
20260501133904 50 102 5.2 9.6 0.00 0.00 0.00 66 1015.5
20260501133804 50 67 5.2 9.6 0.00 0.00 0.00 66 1015.5
20260501133658 50 74 5.2 8.7 0.00 0.00 0.00 66 1015.4
20260501133557 50 81 5.2 8.7 0.00 0.00 0.00 66 1015.4
20260501133458 49 111 5.2 8.7 0.00 0.00 0.00 66 1015.5
20260501133359 49 80 5.2 8.7 0.00 0.00 0.00 65 1015.4